Observation data for Vigo Park on 12/07/2018      Previous  Date       Current Mesonet Observations  Soil Data  Daily Summary Page  Observations in Plain Language
KVP1 070600Z 07004KT M00/M06 A3031 RMK A01 T10041055  RH  068%=      5-min Rain = 0
KVP1 070601Z 07004KT M00/M06 A3031 RMK A01 T10041055  RH  068%=      5-min Rain = 0
KVP1 070602Z 07004KT M00/M06 A3031 RMK A01 T10041056  RH  068%=      5-min Rain = 0
KVP1 070603Z 08004KT M00/M06 A3031 RMK A01 T10041055  RH  068%=      5-min Rain = 0
KVP1 070604Z 08004KT M00/M06 A3031 RMK A01 T10041056  RH  068%=      5-min Rain = 0
KVP1 070605Z 08004KT M00/M06 A3031 RMK A01 T10041056  RH  068%=      5-min Rain = 0
KVP1 070606Z 08003KT M00/M06 A3031 RMK A01 T10041055  RH  068%=      5-min Rain = 0
KVP1 070607Z 08003KT M00/M06 A3031 RMK A01 T10041055  RH  069%=      5-min Rain = 0
KVP1 070608Z 07003KT M01/M06 A3031 RMK A01 T10051056  RH  068%=      5-min Rain = 0
KVP1 070609Z 07003KT M00/M06 A3031 RMK A01 T10041055  RH  068%=      5-min Rain = 0
KVP1 070610Z 07003KT M01/M06 A3031 RMK A01 T10051056  RH  068%=      5-min Rain = 0
KVP1 070611Z 08004KT M01/M06 A3031 RMK A01 T10051056  RH  068%=      5-min Rain = 0
KVP1 070612Z 07004KT M00/M06 A3031 RMK A01 T10041055  RH  068%=      5-min Rain = 0
KVP1 070613Z 08004KT M01/M06 A3031 RMK A01 T10051056  RH  068%=      5-min Rain = 0
KVP1 070614Z 08004KT M01/M06 A3031 RMK A01 T10051056  RH  068%=      5-min Rain = 0
KVP1 070615Z 08004KT M01/M06 A3031 RMK A01 T10051056  RH  068%=      5-min Rain = 0
KVP1 070616Z 07004KT M01/M06 A3031 RMK A01 T10051056  RH  068%=      5-min Rain = 0
KVP1 070617Z 07004KT M01/M06 A3031 RMK A01 T10051056  RH  068%=      5-min Rain = 0
KVP1 070618Z 06004KT M01/M06 A3031 RMK A01 T10051056  RH  068%=      5-min Rain = 0
KVP1 070619Z 06004KT M01/M06 A303 RMK A01 T10061056  RH  069%=      5-min Rain = 0
KVP1 070620Z 06004KT M01/M06 A303 RMK A01 T10061056  RH  069%=      5-min Rain = 0
KVP1 070621Z 06004KT M01/M06 A303 RMK A01 T10071057  RH  069%=      5-min Rain = 0
KVP1 070622Z 06004KT M01/M06 A303 RMK A01 T10071057  RH  069%=      5-min Rain = 0
KVP1 070623Z 06004KT M01/M06 A303 RMK A01 T10071056  RH  069%=      5-min Rain = 0
KVP1 070624Z 06004KT M01/M06 A3031 RMK A01 T10081056  RH  070%=      5-min Rain = 0
KVP1 070625Z 07004KT M01/M06 A303 RMK A01 T10081057  RH  070%=      5-min Rain = 0
KVP1 070626Z 07004KT M01/M06 A303 RMK A01 T10091057  RH  070%=      5-min Rain = 0
KVP1 070627Z 08004KT M01/M06 A303 RMK A01 T10091057  RH  070%=      5-min Rain = 0
KVP1 070628Z 08004KT M01/M06 A303 RMK A01 T10091057  RH  070%=      5-min Rain = 0
KVP1 070629Z 08004KT M01/M06 A303 RMK A01 T10101057  RH  070%=      5-min Rain = 0
KVP1 070630Z 07004KT M01/M06 A303 RMK A01 T10101057  RH  070%=      5-min Rain = 0
KVP1 070631Z 07003KT M01/M06 A303 RMK A01 T10101057  RH  070%=      5-min Rain = 0
KVP1 070632Z 07003KT M01/M06 A303 RMK A01 T10101057  RH  070%=      5-min Rain = 0
KVP1 070633Z 06003KT M01/M06 A303 RMK A01 T10101057  RH  071%=      5-min Rain = 0
KVP1 070634Z 05002KT M01/M06 A303 RMK A01 T10111057  RH  071%=      5-min Rain = 0
KVP1 070635Z 04003KT M01/M06 A303 RMK A01 T10111058  RH  071%=      5-min Rain = 0
KVP1 070636Z 04003KT M01/M06 A3031 RMK A01 T10111057  RH  071%=      5-min Rain = 0
KVP1 070637Z 05002KT M01/M06 A3031 RMK A01 T10121058  RH  071%=      5-min Rain = 0
KVP1 070638Z 05003KT M01/M06 A3031 RMK A01 T10121058  RH  071%=      5-min Rain = 0
KVP1 070639Z 05002KT M01/M06 A3031 RMK A01 T10121058  RH  071%=      5-min Rain = 0
KVP1 070640Z 04002KT M01/M06 A3031 RMK A01 T10111058  RH  071%=      5-min Rain = 0
KVP1 070641Z 04003KT M01/M06 A3031 RMK A01 T10121058  RH  071%=      5-min Rain = 0
KVP1 070642Z 03003KT M01/M06 A3031 RMK A01 T10111058  RH  071%=      5-min Rain = 0
KVP1 070643Z 03004KT M01/M06 A3031 RMK A01 T10111058  RH  071%=      5-min Rain = 0
KVP1 070644Z 03003KT M01/M06 A3031 RMK A01 T10121058  RH  071%=      5-min Rain = 0
KVP1 070645Z 03003KT M01/M06 A3031 RMK A01 T10111057  RH  071%=      5-min Rain = 0
KVP1 070646Z 03003KT M01/M06 A3031 RMK A01 T10121058  RH  071%=      5-min Rain = 0
KVP1 070647Z 03003KT M01/M06 A3031 RMK A01 T10121057  RH  071%=      5-min Rain = 0
KVP1 070648Z 03003KT M01/M06 A3031 RMK A01 T10121057  RH  071%=      5-min Rain = 0
KVP1 070649Z 03003KT M01/M06 A3031 RMK A01 T10121057  RH  071%=      5-min Rain = 0
KVP1 070650Z 03003KT M01/M06 A3031 RMK A01 T10131058  RH  071%=      5-min Rain = 0
KVP1 070651Z 03003KT M01/M06 A3031 RMK A01 T10121058  RH  071%=      5-min Rain = 0
KVP1 070652Z 03003KT M01/M06 A303 RMK A01 T10131058  RH  071%=      5-min Rain = 0
KVP1 070653Z 03003KT M01/M06 A303 RMK A01 T10121058  RH  071%=      5-min Rain = 0
KVP1 070654Z 02003KT M01/M06 A303 RMK A01 T10121058  RH  071%=      5-min Rain = 0
KVP1 070655Z 02003KT M01/M06 A303 RMK A01 T10131058  RH  071%=      5-min Rain = 0
KVP1 070656Z 03003KT M01/M06 A303 RMK A01 T10131058  RH  072%=      5-min Rain = 0
KVP1 070657Z 03003KT M01/M06 A303 RMK A01 T10131058  RH  072%=      5-min Rain = 0
KVP1 070658Z 04003KT M01/M06 A303 RMK A01 T10141058  RH  072%=      5-min Rain = 0
KVP1 070659Z 04003KT M01/M06 A303 RMK A01 T10141058  RH  072%=      5-min Rain = 0
KVP1 070700Z 03004KT M02/M06 A303 RMK A01 T10151058  RH  072%=      5-min Rain = 0
KVP1 070701Z 03004KT M02/M06 A303 RMK A01 T10161058  RH  073%=      5-min Rain = 0
KVP1 070702Z 03004KT M02/M06 A303 RMK A01 T10161058  RH  073%=      5-min Rain = 0
KVP1 070703Z 03004KT M02/M06 A303 RMK A01 T10171058  RH  074%=      5-min Rain = 0
KVP1 070704Z 03003KT M02/M06 A303 RMK A01 T10181058  RH  074%=      5-min Rain = 0
KVP1 070705Z 03003KT M02/M06 A303 RMK A01 T10181058  RH  074%=      5-min Rain = 0
KVP1 070706Z 03004KT M02/M06 A303 RMK A01 T10181057  RH  074%=      5-min Rain = 0
KVP1 070707Z 03004KT M02/M06 A303 RMK A01 T10181057  RH  075%=      5-min Rain = 0
KVP1 070708Z 03004KT M02/M06 A303 RMK A01 T10181057  RH  075%=      5-min Rain = 0
KVP1 070709Z 04004KT M02/M06 A303 RMK A01 T10181057  RH  074%=      5-min Rain = 0
KVP1 070710Z 04004KT M02/M06 A303 RMK A01 T10181057  RH  074%=      5-min Rain = 0
KVP1 070711Z 04004KT M02/M06 A303 RMK A01 T10181057  RH  075%=      5-min Rain = 0
KVP1 070712Z 04004KT M02/M06 A303 RMK A01 T10181057  RH  075%=      5-min Rain = 0
KVP1 070713Z 03004KT M02/M06 A303 RMK A01 T10181057  RH  075%=      5-min Rain = 0
KVP1 070714Z 03004KT M02/M06 A303 RMK A01 T10181057  RH  075%=      5-min Rain = 0
KVP1 070715Z 03004KT M02/M06 A303 RMK A01 T10181057  RH  075%=      5-min Rain = 0
KVP1 070716Z 04003KT M02/M06 A303 RMK A01 T10181057  RH  075%=      5-min Rain = 0
KVP1 070717Z 04003KT M02/M06 A3029 RMK A01 T10181057  RH  075%=      5-min Rain = 0
KVP1 070718Z 04004KT M02/M06 A3029 RMK A01 T10181057  RH  075%=      5-min Rain = 0
KVP1 070719Z 05004KT M02/M06 A3029 RMK A01 T10181057  RH  075%=      5-min Rain = 0
KVP1 070720Z 05004KT M02/M06 A3029 RMK A01 T10181057  RH  075%=      5-min Rain = 0
KVP1 070721Z 05004KT M02/M06 A3029 RMK A01 T10181057  RH  075%=      5-min Rain = 0
KVP1 070722Z 05004KT M02/M06 A3029 RMK A01 T10181057  RH  075%=      5-min Rain = 0
KVP1 070723Z 05004KT M02/M06 A3029 RMK A01 T10191057  RH  075%=      5-min Rain = 0
KVP1 070724Z 05004KT M02/M06 A3029 RMK A01 T10191057  RH  075%=      5-min Rain = 0
KVP1 070725Z 05004KT M02/M06 A3029 RMK A01 T10191057  RH  075%=      5-min Rain = 0
KVP1 070726Z 06004KT M02/M06 A3029 RMK A01 T10191057  RH  075%=      5-min Rain = 0
KVP1 070727Z 05004KT M02/M06 A3029 RMK A01 T10191057  RH  075%=      5-min Rain = 0
KVP1 070728Z 05004KT M02/M06 A3029 RMK A01 T10191056  RH  075%=      5-min Rain = 0
KVP1 070729Z 05004KT M02/M06 A3029 RMK A01 T10191057  RH  075%=      5-min Rain = 0
KVP1 070730Z 05004KT M02/M06 A3029 RMK A01 T10191056  RH  075%=      5-min Rain = 0
KVP1 070731Z 05004KT M02/M06 A3029 RMK A01 T10201057  RH  076%=      5-min Rain = 0
KVP1 070732Z 05004KT M02/M06 A3029 RMK A01 T10201057  RH  076%=      5-min Rain = 0
KVP1 070733Z 05004KT M02/M06 A3029 RMK A01 T10201057  RH  076%=      5-min Rain = 0
KVP1 070734Z 06004KT M02/M06 A3029 RMK A01 T10201056  RH  076%=      5-min Rain = 0
KVP1 070735Z 06004KT M02/M06 A303 RMK A01 T10201057  RH  076%=      5-min Rain = 0
KVP1 070736Z 06003KT M02/M06 A303 RMK A01 T10211057  RH  076%=      5-min Rain = 0
KVP1 070737Z 06004KT M02/M06 A303 RMK A01 T10211057  RH  076%=      5-min Rain = 0
KVP1 070738Z 06004KT M02/M06 A303 RMK A01 T10221058  RH  077%=      5-min Rain = 0
KVP1 070739Z 06004KT M02/M06 A303 RMK A01 T10221057  RH  077%=      5-min Rain = 0
KVP1 070740Z 05004KT M02/M06 A303 RMK A01 T10231058  RH  077%=      5-min Rain = 0
KVP1 070741Z 05004KT M02/M06 A303 RMK A01 T10231058  RH  077%=      5-min Rain = 0
KVP1 070742Z 05004KT M02/M06 A303 RMK A01 T10231058  RH  077%=      5-min Rain = 0
KVP1 070743Z 05003KT M02/M06 A303 RMK A01 T10231057  RH  077%=      5-min Rain = 0
KVP1 070744Z 05003KT M02/M06 A303 RMK A01 T10231057  RH  078%=      5-min Rain = 0
KVP1 070745Z 05003KT M02/M06 A303 RMK A01 T10231057  RH  078%=      5-min Rain = 0
KVP1 070746Z 05004KT M02/M06 A303 RMK A01 T10221056  RH  077%=      5-min Rain = 0
KVP1 070747Z 04004KT M02/M06 A303 RMK A01 T10211056  RH  077%=      5-min Rain = 0
KVP1 070748Z 05003KT M02/M06 A303 RMK A01 T10211056  RH  077%=      5-min Rain = 0
KVP1 070749Z 05004KT M02/M06 A303 RMK A01 T10201055  RH  077%=      5-min Rain = 0
KVP1 070750Z 05004KT M02/M06 A303 RMK A01 T10201055  RH  077%=      5-min Rain = 0
KVP1 070751Z 05004KT M02/M06 A303 RMK A01 T10191055  RH  076%=      5-min Rain = 0
KVP1 070752Z 05004KT M02/M06 A303 RMK A01 T10191055  RH  076%=      5-min Rain = 0
KVP1 070753Z 05004KT M02/M06 A303 RMK A01 T10191056  RH  076%=      5-min Rain = 0
KVP1 070754Z 05004KT M02/M06 A303 RMK A01 T10201056  RH  076%=      5-min Rain = 0
KVP1 070755Z 06004KT M02/M06 A303 RMK A01 T10201055  RH  077%=      5-min Rain = 0
KVP1 070756Z 06004KT M02/M06 A303 RMK A01 T10201055  RH  077%=      5-min Rain = 0
KVP1 070757Z 07004KT M02/M06 A303 RMK A01 T10201055  RH  077%=      5-min Rain = 0
KVP1 070758Z 07004KT M02/M05 A303 RMK A01 T10191054  RH  077%=      5-min Rain = 0
KVP1 070759Z 07004KT M02/M05 A303 RMK A01 T10191054  RH  077%=      5-min Rain = 0
KVP1 070800Z 08004KT M02/M06 A303 RMK A01 T10191055  RH  077%=      5-min Rain = 0
KVP1 070801Z 08003KT M02/M05 A303 RMK A01 T10191054  RH  077%=      5-min Rain = 0
KVP1 070802Z 08003KT M02/M06 A303 RMK A01 T10191055  RH  077%=      5-min Rain = 0
KVP1 070803Z 08003KT M02/M06 A303 RMK A01 T10201055  RH  077%=      5-min Rain = 0
KVP1 070804Z 08004KT M02/M06 A303 RMK A01 T10201055  RH  077%=      5-min Rain = 0
KVP1 070805Z 08004KT M02/M06 A303 RMK A01 T10201055  RH  077%=      5-min Rain = 0
KVP1 070806Z 07004KT M02/M06 A303 RMK A01 T10201055  RH  077%=      5-min Rain = 0
KVP1 070807Z 07004KT M02/M06 A303 RMK A01 T10211055  RH  077%=      5-min Rain = 0
KVP1 070808Z 07003KT M02/M06 A303 RMK A01 T10211055  RH  077%=      5-min Rain = 0
KVP1 070809Z 07003KT M02/M06 A303 RMK A01 T10211055  RH  078%=      5-min Rain = 0
KVP1 070810Z 07003KT M02/M06 A303 RMK A01 T10221055  RH  078%=      5-min Rain = 0
KVP1 070811Z 07003KT M02/M06 A3031 RMK A01 T10221055  RH  078%=      5-min Rain = 0
KVP1 070812Z 07003KT M02/M06 A3031 RMK A01 T10231055  RH  078%=      5-min Rain = 0
KVP1 070813Z 07004KT M02/M06 A303 RMK A01 T10221055  RH  078%=      5-min Rain = 0
KVP1 070814Z 07004KT M02/M06 A3031 RMK A01 T10231055  RH  078%=      5-min Rain = 0
KVP1 070815Z 07004KT M02/M06 A3031 RMK A01 T10231055  RH  078%=      5-min Rain = 0
KVP1 070816Z 07004KT M02/M06 A3031 RMK A01 T10231055  RH  078%=      5-min Rain = 0
KVP1 070817Z 07004KT M02/M06 A303 RMK A01 T10221055  RH  079%=      5-min Rain = 0
KVP1 070818Z 07004KT M02/M06 A303 RMK A01 T10221055  RH  079%=      5-min Rain = 0
KVP1 070819Z 07004KT M02/M06 A303 RMK A01 T10231055  RH  079%=      5-min Rain = 0
KVP1 070820Z 08004KT M02/M05 A303 RMK A01 T10221054  RH  079%=      5-min Rain = 0
KVP1 070821Z 08004KT M02/M06 A3031 RMK A01 T10231055  RH  079%=      5-min Rain = 0
KVP1 070822Z 08004KT M02/M06 A303 RMK A01 T10221055  RH  079%=      5-min Rain = 0
KVP1 070823Z 08004KT M02/M06 A303 RMK A01 T10231055  RH  079%=      5-min Rain = 0
KVP1 070824Z 08003KT M02/M05 A303 RMK A01 T10221054  RH  079%=      5-min Rain = 0
KVP1 070825Z 08003KT M02/M05 A3031 RMK A01 T10221054  RH  079%=      5-min Rain = 0
KVP1 070826Z 08003KT M02/M05 A3031 RMK A01 T10221054  RH  079%=      5-min Rain = 0
KVP1 070827Z 08003KT M02/M05 A3031 RMK A01 T10221054  RH  079%=      5-min Rain = 0
KVP1 070828Z 08003KT M02/M05 A3031 RMK A01 T10221054  RH  079%=      5-min Rain = 0
KVP1 070829Z 09003KT M02/M05 A3031 RMK A01 T10221054  RH  079%=      5-min Rain = 0
KVP1 070830Z 09003KT M02/M05 A3031 RMK A01 T10221054  RH  079%=      5-min Rain = 0
KVP1 070831Z 10003KT M02/M05 A3031 RMK A01 T10211054  RH  079%=      5-min Rain = 0
KVP1 070832Z 10003KT M02/M05 A3031 RMK A01 T10211054  RH  078%=      5-min Rain = 0
KVP1 070833Z 09003KT M02/M05 A3031 RMK A01 T10211053  RH  078%=      5-min Rain = 0
KVP1 070834Z 09003KT M02/M05 A3031 RMK A01 T10211054  RH  078%=      5-min Rain = 0
KVP1 070835Z 09003KT M02/M05 A3031 RMK A01 T10211053  RH  078%=      5-min Rain = 0
KVP1 070836Z 09003KT M02/M05 A3031 RMK A01 T10211054  RH  078%=      5-min Rain = 0
KVP1 070837Z 09003KT M02/M05 A3031 RMK A01 T10201053  RH  078%=      5-min Rain = 0
KVP1 070838Z 09003KT M02/M05 A3031 RMK A01 T10201053  RH  078%=      5-min Rain = 0
KVP1 070839Z 09003KT M02/M05 A3031 RMK A01 T10201054  RH  078%=      5-min Rain = 0
KVP1 070840Z 09003KT M02/M05 A3031 RMK A01 T10201053  RH  078%=      5-min Rain = 0
KVP1 070841Z 10002KT M02/M05 A3031 RMK A01 T10191053  RH  078%=      5-min Rain = 0
KVP1 070842Z 11002KT M02/M05 A3031 RMK A01 T10201053  RH  078%=      5-min Rain = 0
KVP1 070843Z 12002KT M02/M05 A3031 RMK A01 T10201053  RH  078%=      5-min Rain = 0
KVP1 070844Z 13002KT M02/M05 A3031 RMK A01 T10191053  RH  078%=      5-min Rain = 0
KVP1 070845Z 14002KT M02/M05 A3031 RMK A01 T10191053  RH  078%=      5-min Rain = 0
KVP1 070846Z 14002KT M02/M05 A3031 RMK A01 T10191052  RH  078%=      5-min Rain = 0
KVP1 070847Z 14002KT M02/M05 A3031 RMK A01 T10191051  RH  079%=      5-min Rain = 0
KVP1 070848Z 14001KT M02/M05 A3032 RMK A01 T10201051  RH  079%=      5-min Rain = 0
KVP1 070849Z 14001KT M02/M05 A3032 RMK A01 T10201051  RH  080%=      5-min Rain = 0
KVP1 070850Z 15001KT M02/M05 A3032 RMK A01 T10201050  RH  080%=      5-min Rain = 0
KVP1 070851Z 16001KT M02/M05 A3032 RMK A01 T10201050  RH  080%=      5-min Rain = 0
KVP1 070852Z 16002KT M02/M05 A3032 RMK A01 T10211050  RH  080%=      5-min Rain = 0
KVP1 070853Z 16002KT M02/M05 A3032 RMK A01 T10211050  RH  081%=      5-min Rain = 0
KVP1 070854Z 15002KT M02/M05 A3031 RMK A01 T10211049  RH  081%=      5-min Rain = 0
KVP1 070855Z 15002KT M02/M05 A3031 RMK A01 T10211049  RH  081%=      5-min Rain = 0
KVP1 070856Z 15002KT M02/M05 A3032 RMK A01 T10211049  RH  082%=      5-min Rain = 0
KVP1 070857Z 16002KT M02/M05 A3032 RMK A01 T10211048  RH  082%=      5-min Rain = 0
KVP1 070858Z 16002KT M02/M05 A3032 RMK A01 T10211047  RH  082%=      5-min Rain = 0
KVP1 070859Z 16002KT M02/M05 A3032 RMK A01 T10211047  RH  082%=      5-min Rain = 0
KVP1 070900Z 15002KT M02/M05 A3031 RMK A01 T10211047  RH  082%=      5-min Rain = 0
KVP1 070901Z 14002KT M02/M05 A3031 RMK A01 T10211047  RH  082%=      5-min Rain = 0
KVP1 070902Z 12002KT M02/M05 A3031 RMK A01 T10211047  RH  082%=      5-min Rain = 0
KVP1 070903Z 12002KT M02/M05 A3031 RMK A01 T10211047  RH  082%=      5-min Rain = 0
KVP1 070904Z 12002KT M02/M05 A3031 RMK A01 T10201047  RH  082%=      5-min Rain = 0
KVP1 070905Z 12001KT M02/M05 A3031 RMK A01 T10201047  RH  082%=      5-min Rain = 0
KVP1 070906Z 12002KT M02/M05 A3031 RMK A01 T10201047  RH  082%=      5-min Rain = 0
KVP1 070907Z 12002KT M02/M05 A3031 RMK A01 T10201047  RH  082%=      5-min Rain = 0
KVP1 070908Z 12002KT M02/M05 A3031 RMK A01 T10201047  RH  082%=      5-min Rain = 0
KVP1 070909Z 12002KT M02/M05 A3031 RMK A01 T10201047  RH  081%=      5-min Rain = 0
KVP1 070910Z 11001KT M02/M05 A3031 RMK A01 T10201047  RH  081%=      5-min Rain = 0
KVP1 070911Z 11001KT M02/M05 A3031 RMK A01 T10191048  RH  081%=      5-min Rain = 0
KVP1 070912Z 10002KT M02/M05 A303 RMK A01 T10191048  RH  081%=      5-min Rain = 0
KVP1 070913Z 09002KT M02/M05 A303 RMK A01 T10181048  RH  080%=      5-min Rain = 0
KVP1 070914Z 08002KT M02/M05 A303 RMK A01 T10181048  RH  080%=      5-min Rain = 0
KVP1 070915Z 08002KT M02/M05 A303 RMK A01 T10181048  RH  080%=      5-min Rain = 0
KVP1 070916Z 09002KT M02/M05 A303 RMK A01 T10171048  RH  079%=      5-min Rain = 0
KVP1 070917Z 10002KT M02/M05 A303 RMK A01 T10171049  RH  079%=      5-min Rain = 0
KVP1 070918Z 10002KT M02/M05 A303 RMK A01 T10171049  RH  079%=      5-min Rain = 0
KVP1 070919Z 11002KT M02/M05 A3031 RMK A01 T10171048  RH  079%=      5-min Rain = 0
KVP1 070920Z 11001KT M02/M05 A3031 RMK A01 T10171048  RH  079%=      5-min Rain = 0
KVP1 070921Z 11001KT M02/M05 A3031 RMK A01 T10171048  RH  080%=      5-min Rain = 0
KVP1 070922Z 11002KT M02/M05 A3031 RMK A01 T10171047  RH  080%=      5-min Rain = 0
KVP1 070923Z 12001KT M02/M05 A3031 RMK A01 T10161047  RH  079%=      5-min Rain = 0
KVP1 070924Z 12001KT M02/M05 A3031 RMK A01 T10171048  RH  079%=      5-min Rain = 0
KVP1 070925Z 12001KT M02/M05 A3031 RMK A01 T10171048  RH  079%=      5-min Rain = 0
KVP1 070926Z 14001KT M02/M05 A3031 RMK A01 T10161048  RH  079%=      5-min Rain = 0
KVP1 070927Z 16001KT M02/M05 A3031 RMK A01 T10161046  RH  080%=      5-min Rain = 0
KVP1 070928Z 17002KT M02/M05 A3031 RMK A01 T10161045  RH  081%=      5-min Rain = 0
KVP1 070929Z 18002KT M02/M04 A3031 RMK A01 T10161043  RH  082%=      5-min Rain = 0
KVP1 070930Z 18002KT M02/M04 A3031 RMK A01 T10161043  RH  082%=      5-min Rain = 0
KVP1 070931Z 19002KT M02/M04 A3031 RMK A01 T10161042  RH  082%=      5-min Rain = 0
KVP1 070932Z 19002KT M02/M04 A3031 RMK A01 T10161042  RH  083%=      5-min Rain = 0
KVP1 070933Z 19003KT M02/M04 A3032 RMK A01 T10171042  RH  083%=      5-min Rain = 0
KVP1 070934Z 20003KT M02/M04 A3032 RMK A01 T10171042  RH  083%=      5-min Rain = 0
KVP1 070935Z 20004KT M02/M04 A3032 RMK A01 T10171041  RH  084%=      5-min Rain = 0
KVP1 070936Z 20004KT M02/M04 A3032 RMK A01 T10171041  RH  083%=      5-min Rain = 0
KVP1 070937Z 20004KT M02/M04 A3032 RMK A01 T10171041  RH  083%=      5-min Rain = 0
KVP1 070938Z 21004KT M02/M04 A3031 RMK A01 T10171041  RH  083%=      5-min Rain = 0
KVP1 070939Z 20004KT M02/M04 A3032 RMK A01 T10171042  RH  083%=      5-min Rain = 0
KVP1 070940Z 20004KT M02/M04 A3032 RMK A01 T10171042  RH  083%=      5-min Rain = 0
KVP1 070941Z 20004KT M02/M04 A3032 RMK A01 T10171042  RH  083%=      5-min Rain = 0
KVP1 070942Z 21004KT M02/M04 A3032 RMK A01 T10171043  RH  083%=      5-min Rain = 0
KVP1 070943Z 20003KT M02/M04 A3032 RMK A01 T10161043  RH  082%=      5-min Rain = 0
KVP1 070944Z 20004KT M02/M04 A3031 RMK A01 T10161043  RH  082%=      5-min Rain = 0
KVP1 070945Z 21003KT M02/M04 A3031 RMK A01 T10171044  RH  082%=      5-min Rain = 0
KVP1 070946Z 21003KT M02/M04 A3031 RMK A01 T10161044  RH  082%=      5-min Rain = 0
KVP1 070947Z 21003KT M02/M04 A3031 RMK A01 T10161044  RH  082%=      5-min Rain = 0
KVP1 070948Z 21003KT M02/M04 A3031 RMK A01 T10161044  RH  082%=      5-min Rain = 0
KVP1 070949Z 20003KT M02/M04 A3031 RMK A01 T10161044  RH  082%=      5-min Rain = 0
KVP1 070950Z 21002KT M02/M04 A3031 RMK A01 T10171044  RH  081%=      5-min Rain = 0
KVP1 070951Z 20002KT M02/M04 A3031 RMK A01 T10171044  RH  081%=      5-min Rain = 0
KVP1 070952Z 19001KT M02/M04 A3031 RMK A01 T10171044  RH  081%=      5-min Rain = 0
KVP1 070953Z 19001KT M02/M04 A303 RMK A01 T10161044  RH  081%=      5-min Rain = 0
KVP1 070954Z 18001KT M02/M05 A303 RMK A01 T10171045  RH  081%=      5-min Rain = 0
KVP1 070955Z 19001KT M02/M05 A303 RMK A01 T10171045  RH  081%=      5-min Rain = 0
KVP1 070956Z 19001KT M02/M05 A303 RMK A01 T10171045  RH  081%=      5-min Rain = 0
KVP1 070957Z 20001KT M02/M05 A303 RMK A01 T10161045  RH  081%=      5-min Rain = 0
KVP1 070958Z 20001KT M02/M04 A303 RMK A01 T10161044  RH  081%=      5-min Rain = 0
KVP1 070959Z 19000KT M02/M05 A303 RMK A01 T10171045  RH  081%=      5-min Rain = 0
KVP1 071000Z 16000KT M02/M05 A303 RMK A01 T10171045  RH  081%=      5-min Rain = 0
KVP1 071001Z 16001KT M02/M05 A303 RMK A01 T10161045  RH  081%=      5-min Rain = 0
KVP1 071002Z 13001KT M02/M05 A3029 RMK A01 T10161045  RH  081%=      5-min Rain = 0
KVP1 071003Z 10001KT M02/M05 A3029 RMK A01 T10171045  RH  081%=      5-min Rain = 0
KVP1 071004Z 09001KT M02/M05 A3029 RMK A01 T10171045  RH  081%=      5-min Rain = 0
KVP1 071005Z 09001KT M02/M05 A3029 RMK A01 T10161045  RH  081%=      5-min Rain = 0
KVP1 071006Z 09001KT M02/M05 A3029 RMK A01 T10161045  RH  081%=      5-min Rain = 0
KVP1 071007Z 10001KT M02/M05 A3029 RMK A01 T10161045  RH  081%=      5-min Rain = 0
KVP1 071008Z 10001KT M02/M05 A3029 RMK A01 T10161045  RH  080%=      5-min Rain = 0
KVP1 071009Z 09001KT M02/M05 A3028 RMK A01 T10161045  RH  080%=      5-min Rain = 0
KVP1 071010Z 09002KT M02/M05 A3028 RMK A01 T10151045  RH  080%=      5-min Rain = 0
KVP1 071011Z 09002KT M02/M05 A3028 RMK A01 T10161046  RH  080%=      5-min Rain = 0
KVP1 071012Z 08002KT M02/M05 A3028 RMK A01 T10151046  RH  080%=      5-min Rain = 0
KVP1 071013Z 07002KT M02/M05 A3028 RMK A01 T10151046  RH  080%=      5-min Rain = 0
KVP1 071014Z 07002KT M02/M05 A3028 RMK A01 T10151046  RH  080%=      5-min Rain = 0
KVP1 071015Z 07002KT M02/M05 A3028 RMK A01 T10151045  RH  080%=      5-min Rain = 0
KVP1 071016Z 07003KT M02/M05 A3028 RMK A01 T10151045  RH  080%=      5-min Rain = 0
KVP1 071017Z 07002KT M02/M05 A3028 RMK A01 T10151045  RH  080%=      5-min Rain = 0
KVP1 071018Z 07002KT M02/M05 A3028 RMK A01 T10151045  RH  080%=      5-min Rain = 0
KVP1 071019Z 07002KT M02/M05 A3028 RMK A01 T10151046  RH  080%=      5-min Rain = 0
KVP1 071020Z 07002KT M02/M05 A3028 RMK A01 T10161046  RH  080%=      5-min Rain = 0
KVP1 071021Z 07002KT M02/M05 A3027 RMK A01 T10161046  RH  080%=      5-min Rain = 0
KVP1 071022Z 07003KT M02/M05 A3027 RMK A01 T10161046  RH  080%=      5-min Rain = 0
KVP1 071023Z 07003KT M02/M05 A3027 RMK A01 T10161046  RH  080%=      5-min Rain = 0
KVP1 071024Z 07003KT M02/M05 A3027 RMK A01 T10161046  RH  080%=      5-min Rain = 0
KVP1 071025Z 07003KT M02/M05 A3027 RMK A01 T10161046  RH  080%=      5-min Rain = 0
KVP1 071026Z 07004KT M02/M05 A3026 RMK A01 T10161045  RH  081%=      5-min Rain = 0
KVP1 071027Z 07004KT M02/M05 A3026 RMK A01 T10161045  RH  081%=      5-min Rain = 0
KVP1 071028Z 06004KT M02/M05 A3026 RMK A01 T10161045  RH  081%=      5-min Rain = 0
KVP1 071029Z 07004KT M02/M04 A3026 RMK A01 T10161044  RH  081%=      5-min Rain = 0
KVP1 071030Z 07004KT M02/M05 A3026 RMK A01 T10161045  RH  081%=      5-min Rain = 0
KVP1 071031Z 06003KT M02/M04 A3026 RMK A01 T10161044  RH  081%=      5-min Rain = 0
KVP1 071032Z 06003KT M02/M04 A3027 RMK A01 T10161044  RH  081%=      5-min Rain = 0
KVP1 071033Z 06003KT M02/M04 A3027 RMK A01 T10161044  RH  081%=      5-min Rain = 0
KVP1 071034Z 06003KT M02/M04 A3026 RMK A01 T10161044  RH  081%=      5-min Rain = 0
KVP1 071035Z 07004KT M02/M04 A3026 RMK A01 T10161044  RH  081%=      5-min Rain = 0
KVP1 071036Z 06004KT M02/M04 A3026 RMK A01 T10161044  RH  081%=      5-min Rain = 0
KVP1 071037Z 06005KT M02/M04 A3026 RMK A01 T10161044  RH  081%=      5-min Rain = 0
KVP1 071038Z 06004KT M02/M04 A3026 RMK A01 T10161044  RH  082%=      5-min Rain = 0
KVP1 071039Z 06004KT M02/M04 A3026 RMK A01 T10161044  RH  081%=      5-min Rain = 0
KVP1 071040Z 06003KT M02/M04 A3026 RMK A01 T10161044  RH  081%=      5-min Rain = 0
KVP1 071041Z 07003KT M02/M05 A3026 RMK A01 T10161045  RH  081%=      5-min Rain = 0
KVP1 071042Z 07002KT M02/M04 A3026 RMK A01 T10161044  RH  081%=      5-min Rain = 0
KVP1 071043Z 08002KT M02/M04 A3027 RMK A01 T10161044  RH  081%=      5-min Rain = 0
KVP1 071044Z 08001KT M02/M05 A3027 RMK A01 T10161045  RH  081%=      5-min Rain = 0
KVP1 071045Z 08001KT M02/M05 A3027 RMK A01 T10161045  RH  080%=      5-min Rain = 0
KVP1 071046Z 06000KT M02/M05 A3027 RMK A01 T10161045  RH  080%=      5-min Rain = 0
KVP1 071047Z 05000KT M02/M05 A3027 RMK A01 T10151045  RH  080%=      5-min Rain = 0
KVP1 071048Z 06000KT M02/M05 A3027 RMK A01 T10161045  RH  080%=      5-min Rain = 0
KVP1 071049Z 07001KT M02/M05 A3027 RMK A01 T10151045  RH  080%=      5-min Rain = 0
KVP1 071050Z 08001KT M02/M05 A3027 RMK A01 T10151046  RH  080%=      5-min Rain = 0
KVP1 071051Z 08002KT M02/M05 A3027 RMK A01 T10161046  RH  080%=      5-min Rain = 0
KVP1 071052Z 08002KT M02/M05 A3026 RMK A01 T10151045  RH  080%=      5-min Rain = 0
KVP1 071053Z 08003KT M02/M05 A3026 RMK A01 T10151045  RH  080%=      5-min Rain = 0
KVP1 071054Z 08003KT M02/M05 A3026 RMK A01 T10151045  RH  080%=      5-min Rain = 0
KVP1 071055Z 07003KT M02/M05 A3026 RMK A01 T10151045  RH  080%=      5-min Rain = 0
KVP1 071056Z 07003KT M02/M04 A3026 RMK A01 T10151044  RH  081%=      5-min Rain = 0
KVP1 071057Z 07003KT M02/M04 A3026 RMK A01 T10151044  RH  081%=      5-min Rain = 0
KVP1 071058Z 06002KT M02/M04 A3026 RMK A01 T10151044  RH  081%=      5-min Rain = 0
KVP1 071059Z 06003KT M02/M04 A3026 RMK A01 T10151044  RH  081%=      5-min Rain = 0
KVP1 071100Z 06003KT M02/M04 A3026 RMK A01 T10151044  RH  081%=      5-min Rain = 0
KVP1 071101Z 07003KT M02/M04 A3026 RMK A01 T10151043  RH  081%=      5-min Rain = 0
KVP1 071102Z 07003KT M02/M04 A3026 RMK A01 T10151043  RH  081%=      5-min Rain = 0
KVP1 071103Z 07002KT M02/M04 A3027 RMK A01 T10151043  RH  081%=      5-min Rain = 0
KVP1 071104Z 08002KT M02/M04 A3027 RMK A01 T10151043  RH  081%=      5-min Rain = 0
KVP1 071105Z 09002KT M02/M04 A3027 RMK A01 T10151043  RH  082%=      5-min Rain = 0
KVP1 071106Z 09003KT M02/M04 A3027 RMK A01 T10151043  RH  081%=      5-min Rain = 0
KVP1 071107Z 10003KT M02/M04 A3027 RMK A01 T10151043  RH  081%=      5-min Rain = 0
KVP1 071108Z 09003KT M02/M04 A3027 RMK A01 T10151043  RH  081%=      5-min Rain = 0
KVP1 071109Z 08003KT M02/M04 A3027 RMK A01 T10151044  RH  081%=      5-min Rain = 0
KVP1 071110Z 08003KT M02/M04 A3027 RMK A01 T10151044  RH  081%=      5-min Rain = 0
KVP1 071111Z 09003KT M01/M04 A3027 RMK A01 T10141043  RH  081%=      5-min Rain = 0
KVP1 071112Z 09003KT M01/M04 A3027 RMK A01 T10141043  RH  081%=      5-min Rain = 0
KVP1 071113Z 10003KT M01/M04 A3027 RMK A01 T10141043  RH  081%=      5-min Rain = 0
KVP1 071114Z 10003KT M01/M04 A3027 RMK A01 T10141043  RH  081%=      5-min Rain = 0
KVP1 071115Z 10003KT M01/M04 A3027 RMK A01 T10141042  RH  081%=      5-min Rain = 0
KVP1 071116Z 10003KT M01/M04 A3027 RMK A01 T10141042  RH  081%=      5-min Rain = 0
KVP1 071117Z 10003KT M01/M04 A3027 RMK A01 T10141042  RH  081%=      5-min Rain = 0
KVP1 071118Z 10003KT M01/M04 A3027 RMK A01 T10131042  RH  081%=      5-min Rain = 0
KVP1 071119Z 10003KT M01/M04 A3027 RMK A01 T10131042  RH  081%=      5-min Rain = 0
KVP1 071120Z 10003KT M01/M04 A3027 RMK A01 T10131042  RH  081%=      5-min Rain = 0
KVP1 071121Z 09003KT M01/M04 A3027 RMK A01 T10131042  RH  081%=      5-min Rain = 0
KVP1 071122Z 09003KT M01/M04 A3027 RMK A01 T10131041  RH  081%=      5-min Rain = 0
KVP1 071123Z 09003KT M01/M04 A3027 RMK A01 T10131041  RH  081%=      5-min Rain = 0
KVP1 071124Z 09004KT M01/M04 A3027 RMK A01 T10131041  RH  081%=      5-min Rain = 0
KVP1 071125Z 10003KT M01/M04 A3027 RMK A01 T10131042  RH  081%=      5-min Rain = 0
KVP1 071126Z 10003KT M01/M04 A3028 RMK A01 T10131042  RH  081%=      5-min Rain = 0
KVP1 071127Z 10003KT M01/M04 A3028 RMK A01 T10121041  RH  081%=      5-min Rain = 0
KVP1 071128Z 11004KT M01/M04 A3028 RMK A01 T10121042  RH  081%=      5-min Rain = 0
KVP1 071129Z 11004KT M01/M04 A3028 RMK A01 T10121042  RH  080%=      5-min Rain = 0
KVP1 071130Z 11003KT M01/M04 A3028 RMK A01 T10121042  RH  080%=      5-min Rain = 0
KVP1 071131Z 10003KT M01/M04 A3028 RMK A01 T10121042  RH  080%=      5-min Rain = 0
KVP1 071132Z 09003KT M01/M04 A3028 RMK A01 T10121043  RH  080%=      5-min Rain = 0
KVP1 071133Z 08004KT M01/M04 A3028 RMK A01 T10121043  RH  080%=      5-min Rain = 0
KVP1 071134Z 08003KT M01/M04 A3028 RMK A01 T10121043  RH  080%=      5-min Rain = 0
KVP1 071135Z 08003KT M01/M04 A3028 RMK A01 T10121043  RH  080%=      5-min Rain = 0
KVP1 071136Z 08003KT M01/M04 A3028 RMK A01 T10121043  RH  080%=      5-min Rain = 0
KVP1 071137Z 09004KT M01/M04 A3028 RMK A01 T10121044  RH  079%=      5-min Rain = 0
KVP1 071138Z 09004KT M01/M05 A3028 RMK A01 T10121045  RH  079%=      5-min Rain = 0
KVP1 071139Z 09005KT M01/M05 A3028 RMK A01 T10121045  RH  078%=      5-min Rain = 0
KVP1 071140Z 09005KT M01/M05 A3028 RMK A01 T10121045  RH  078%=      5-min Rain = 0
KVP1 071141Z 09005KT M01/M04 A3028 RMK A01 T10121044  RH  079%=      5-min Rain = 0
KVP1 071142Z 10005KT M01/M05 A3028 RMK A01 T10121045  RH  078%=      5-min Rain = 0
KVP1 071143Z 10006KT M01/M05 A3027 RMK A01 T10121045  RH  078%=      5-min Rain = 0
KVP1 071144Z 10006KT M01/M05 A3027 RMK A01 T10121045  RH  078%=      5-min Rain = 0
KVP1 071145Z 10005KT M01/M05 A3027 RMK A01 T10121045  RH  078%=      5-min Rain = 0
KVP1 071146Z 10005KT M01/M05 A3027 RMK A01 T10121045  RH  078%=      5-min Rain = 0
KVP1 071147Z 10005KT M01/M05 A3027 RMK A01 T10121046  RH  078%=      5-min Rain = 0
KVP1 071148Z 10005KT M01/M05 A3027 RMK A01 T10121046  RH  078%=      5-min Rain = 0
KVP1 071149Z 09006KT M01/M05 A3027 RMK A01 T10121046  RH  078%=      5-min Rain = 0
KVP1 071150Z 09005KT M01/M05 A3027 RMK A01 T10121046  RH  077%=      5-min Rain = 0
KVP1 071151Z 08006KT M01/M05 A3027 RMK A01 T10121046  RH  078%=      5-min Rain = 0
KVP1 071152Z 08006KT M01/M05 A3027 RMK A01 T10121046  RH  078%=      5-min Rain = 0
KVP1 071153Z 08005KT M01/M05 A3027 RMK A01 T10121046  RH  078%=      5-min Rain = 0
KVP1 071154Z 07006KT M01/M05 A3027 RMK A01 T10121046  RH  078%=      5-min Rain = 0
KVP1 071155Z 07005KT M01/M05 A3027 RMK A01 T10121046  RH  078%=      5-min Rain = 0
KVP1 071156Z 08006KT M01/M05 A3026 RMK A01 T10121047  RH  077%=      5-min Rain = 0
KVP1 071157Z 09006KT M01/M05 A3026 RMK A01 T10121046  RH  077%=      5-min Rain = 0
KVP1 071158Z 09008KT M01/M05 A3026 RMK A01 T10121046  RH  077%=      5-min Rain = 0
KVP1 071159Z 09008KT M01/M05 A3026 RMK A01 T10121047  RH  077%=      5-min Rain = 0
KVP1 071200Z 09009KT M01/M05 A3026 RMK A01 T10121046  RH  077%=      5-min Rain = 0
KVP1 071201Z 08007KT M01/M05 A3027 RMK A01 T10121047  RH  077%=      5-min Rain = 0
KVP1 071202Z 08006KT M01/M05 A3027 RMK A01 T10121046  RH  077%=      5-min Rain = 0
KVP1 071203Z 08007KT M01/M05 A3027 RMK A01 T10121046  RH  077%=      5-min Rain = 0
KVP1 071204Z 08008KT M01/M05 A3027 RMK A01 T10121046  RH  077%=      5-min Rain = 0
KVP1 071205Z 08008KT M01/M05 A3027 RMK A01 T10121046  RH  078%=      5-min Rain = 0
KVP1 071206Z 08007KT M01/M05 A3027 RMK A01 T10121046  RH  078%=      5-min Rain = 0
KVP1 071207Z 08006KT M01/M05 A3028 RMK A01 T10121046  RH  078%=      5-min Rain = 0
KVP1 071208Z 08005KT M01/M05 A3028 RMK A01 T10131046  RH  078%=      5-min Rain = 0
KVP1 071209Z 07004KT M01/M05 A3028 RMK A01 T10121045  RH  078%=      5-min Rain = 0
KVP1 071210Z 07006KT M01/M05 A3028 RMK A01 T10121045  RH  078%=      5-min Rain = 0
KVP1 071211Z 08007KT M01/M05 A3028 RMK A01 T10121046  RH  078%=      5-min Rain = 0
KVP1 071212Z 07006KT M01/M05 A3027 RMK A01 T10131046  RH  078%=      5-min Rain = 0
KVP1 071213Z 07007KT M01/M05 A3027 RMK A01 T10121045  RH  078%=      5-min Rain = 0
KVP1 071214Z 07007KT M01/M05 A3027 RMK A01 T10121045  RH  078%=      5-min Rain = 0
KVP1 071215Z 07006KT M01/M05 A3027 RMK A01 T10121045  RH  079%=      5-min Rain = 0
KVP1 071216Z 07006KT M01/M05 A3027 RMK A01 T10131045  RH  079%=      5-min Rain = 0
KVP1 071217Z 08006KT M01/M05 A3028 RMK A01 T10131045  RH  079%=      5-min Rain = 0
KVP1 071218Z 09006KT M01/M04 A3028 RMK A01 T10131044  RH  079%=      5-min Rain = 0
KVP1 071219Z 09007KT M01/M04 A3028 RMK A01 T10131044  RH  079%=      5-min Rain = 0
KVP1 071220Z 09007KT M01/M05 A3027 RMK A01 T10131045  RH  079%=      5-min Rain = 0
KVP1 071221Z 09006KT M01/M05 A3027 RMK A01 T10131045  RH  079%=      5-min Rain = 0
KVP1 071222Z 08007KT M01/M05 A3027 RMK A01 T10131045  RH  079%=      5-min Rain = 0
KVP1 071223Z 08007KT M01/M05 A3028 RMK A01 T10141045  RH  079%=      5-min Rain = 0
KVP1 071224Z 09006KT M01/M05 A3027 RMK A01 T10141045  RH  079%=      5-min Rain = 0
KVP1 071225Z 09007KT M01/M05 A3027 RMK A01 T10141045  RH  079%=      5-min Rain = 0
KVP1 071226Z 09007KT M01/M05 A3027 RMK A01 T10141045  RH  079%=      5-min Rain = 0
KVP1 071227Z 09007KT M01/M05 A3027 RMK A01 T10141045  RH  080%=      5-min Rain = 0
KVP1 071228Z 09006KT M01/M04 A3027 RMK A01 T10141044  RH  080%=      5-min Rain = 0
KVP1 071229Z 09007KT M01/M04 A3027 RMK A01 T10141044  RH  080%=      5-min Rain = 0
KVP1 071230Z 10007KT M01/M04 A3027 RMK A01 T10141044  RH  080%=      5-min Rain = 0
KVP1 071231Z 09007KT M02/M05 A3027 RMK A01 T10151045  RH  080%=      5-min Rain = 0
KVP1 071232Z 10007KT M01/M04 A3027 RMK A01 T10141044  RH  080%=      5-min Rain = 0
KVP1 071233Z 10008KT M02/M04 A3027 RMK A01 T10151044  RH  080%=      5-min Rain = 0
KVP1 071234Z 10008KT M02/M05 A3027 RMK A01 T10151045  RH  080%=      5-min Rain = 0
KVP1 071235Z 09007KT M02/M04 A3027 RMK A01 T10151044  RH  080%=      5-min Rain = 0
KVP1 071236Z 09006KT M02/M04 A3027 RMK A01 T10151044  RH  080%=      5-min Rain = 0
KVP1 071237Z 09006KT M02/M04 A3028 RMK A01 T10151044  RH  080%=      5-min Rain = 0
KVP1 071238Z 08006KT M02/M04 A3028 RMK A01 T10151044  RH  080%=      5-min Rain = 0
KVP1 071239Z 08006KT M02/M04 A3028 RMK A01 T10151044  RH  080%=      5-min Rain = 0
KVP1 071240Z 09007KT M02/M04 A3028 RMK A01 T10151044  RH  080%=      5-min Rain = 0
KVP1 071241Z 10006KT M02/M05 A3028 RMK A01 T10151045  RH  080%=      5-min Rain = 0
KVP1 071242Z 10006KT M02/M05 A3028 RMK A01 T10151045  RH  080%=      5-min Rain = 0
KVP1 071243Z 10005KT M02/M04 A3028 RMK A01 T10151044  RH  080%=      5-min Rain = 0
KVP1 071244Z 09007KT M02/M04 A3028 RMK A01 T10151044  RH  081%=      5-min Rain = 0
KVP1 071245Z 10006KT M02/M04 A3028 RMK A01 T10151044  RH  081%=      5-min Rain = 0
KVP1 071246Z 10007KT M01/M04 A3028 RMK A01 T10141043  RH  081%=      5-min Rain = 0
KVP1 071247Z 10006KT M01/M04 A3028 RMK A01 T10141043  RH  081%=      5-min Rain = 0
KVP1 071248Z 10006KT M01/M04 A3028 RMK A01 T10141043  RH  081%=      5-min Rain = 0
KVP1 071249Z 10006KT M01/M04 A3029 RMK A01 T10141043  RH  081%=      5-min Rain = 0
KVP1 071250Z 10006KT M01/M04 A3029 RMK A01 T10141043  RH  081%=      5-min Rain = 0
KVP1 071251Z 10007KT M01/M04 A3029 RMK A01 T10141042  RH  081%=      5-min Rain = 0
KVP1 071252Z 10007KT M01/M04 A3029 RMK A01 T10141043  RH  081%=      5-min Rain = 0
KVP1 071253Z 10006KT M01/M04 A3029 RMK A01 T10141043  RH  081%=      5-min Rain = 0
KVP1 071254Z 10005KT M01/M04 A3029 RMK A01 T10141042  RH  081%=      5-min Rain = 0
KVP1 071255Z 11005KT M01/M04 A303 RMK A01 T10141042  RH  081%=      5-min Rain = 0
KVP1 071256Z 11005KT M01/M04 A303 RMK A01 T10141042  RH  081%=      5-min Rain = 0
KVP1 071257Z 11006KT M01/M04 A3029 RMK A01 T10141042  RH  081%=      5-min Rain = 0
KVP1 071258Z 11005KT M01/M04 A303 RMK A01 T10141042  RH  081%=      5-min Rain = 0
KVP1 071259Z 12004KT M01/M04 A303 RMK A01 T10141042  RH  082%=      5-min Rain = 0
KVP1 071300Z 11004KT M01/M04 A303 RMK A01 T10141041  RH  082%=      5-min Rain = 0
KVP1 071301Z 11003KT M01/M04 A303 RMK A01 T10141041  RH  082%=      5-min Rain = 0
KVP1 071302Z 12005KT M01/M04 A303 RMK A01 T10141041  RH  082%=      5-min Rain = 0
KVP1 071303Z 12006KT M01/M04 A303 RMK A01 T10141041  RH  082%=      5-min Rain = 0
KVP1 071304Z 11006KT M01/M04 A303 RMK A01 T10141041  RH  082%=      5-min Rain = 0
KVP1 071305Z 12004KT M01/M04 A303 RMK A01 T10141041  RH  082%=      5-min Rain = 0
KVP1 071306Z 12003KT M01/M04 A3031 RMK A01 T10141041  RH  082%=      5-min Rain = 0
KVP1 071307Z 13005KT M01/M04 A3031 RMK A01 T10141041  RH  082%=      5-min Rain = 0
KVP1 071308Z 12005KT M02/M04 A3031 RMK A01 T10151042  RH  082%=      5-min Rain = 0
KVP1 071309Z 12005KT M01/M04 A3031 RMK A01 T10141042  RH  082%=      5-min Rain = 0
KVP1 071310Z 13004KT M02/M04 A3031 RMK A01 T10151042  RH  082%=      5-min Rain = 0
KVP1 071311Z 11004KT M01/M04 A3031 RMK A01 T10141041  RH  082%=      5-min Rain = 0
KVP1 071312Z 11004KT M02/M04 A303 RMK A01 T10151041  RH  082%=      5-min Rain = 0
KVP1 071313Z 12005KT M02/M04 A303 RMK A01 T10151041  RH  082%=      5-min Rain = 0
KVP1 071314Z 11005KT M02/M04 A303 RMK A01 T10151041  RH  082%=      5-min Rain = 0
KVP1 071315Z 11005KT M02/M04 A303 RMK A01 T10151041  RH  082%=      5-min Rain = 0
KVP1 071316Z 11005KT M01/M04 A303 RMK A01 T10141041  RH  082%=      5-min Rain = 0
KVP1 071317Z 11005KT M01/M04 A303 RMK A01 T10141041  RH  082%=      5-min Rain = 0
KVP1 071318Z 11006KT M02/M04 A303 RMK A01 T10151041  RH  082%=      5-min Rain = 0
KVP1 071319Z 12006KT M02/M04 A303 RMK A01 T10151042  RH  082%=      5-min Rain = 0
KVP1 071320Z 11006KT M02/M04 A3029 RMK A01 T10151041  RH  082%=      5-min Rain = 0
KVP1 071321Z 11004KT M02/M04 A3029 RMK A01 T10151041  RH  082%=      5-min Rain = 0
KVP1 071322Z 11005KT M02/M04 A3029 RMK A01 T10151041  RH  083%=      5-min Rain = 0
KVP1 071323Z 11007KT M02/M04 A3029 RMK A01 T10151040  RH  083%=      5-min Rain = 0
KVP1 071324Z 11007KT M02/M04 A3029 RMK A01 T10151041  RH  082%=      5-min Rain = 0
KVP1 071325Z 11006KT M02/M04 A303 RMK A01 T10151041  RH  082%=      5-min Rain = 0
KVP1 071326Z 11006KT M02/M04 A303 RMK A01 T10151041  RH  082%=      5-min Rain = 0
KVP1 071327Z 11005KT M02/M04 A303 RMK A01 T10151041  RH  082%=      5-min Rain = 0
KVP1 071328Z 11006KT M02/M04 A303 RMK A01 T10151041  RH  082%=      5-min Rain = 0
KVP1 071329Z 10005KT M02/M04 A303 RMK A01 T10151041  RH  082%=      5-min Rain = 0
KVP1 071330Z 10004KT M02/M04 A303 RMK A01 T10151041  RH  082%=      5-min Rain = 0
KVP1 071331Z 10005KT M02/M04 A303 RMK A01 T10151041  RH  082%=      5-min Rain = 0
KVP1 071332Z 09005KT M02/M04 A303 RMK A01 T10151041  RH  082%=      5-min Rain = 0
KVP1 071333Z 09006KT M02/M04 A303 RMK A01 T10151041  RH  082%=      5-min Rain = 0
KVP1 071334Z 09005KT M02/M04 A303 RMK A01 T10151041  RH  082%=      5-min Rain = 0
KVP1 071335Z 09006KT M02/M04 A3029 RMK A01 T10151041  RH  082%=      5-min Rain = 0
KVP1 071336Z 09005KT M01/M04 A3029 RMK A01 T10141040  RH  082%=      5-min Rain = 0
KVP1 071337Z 09007KT M01/M04 A303 RMK A01 T10141040  RH  082%=      5-min Rain = 0
KVP1 071338Z 09006KT M01/M04 A303 RMK A01 T10141041  RH  082%=      5-min Rain = 0
KVP1 071339Z 09006KT M01/M04 A303 RMK A01 T10141041  RH  082%=      5-min Rain = 0
KVP1 071340Z 09006KT M01/M04 A303 RMK A01 T10141041  RH  082%=      5-min Rain = 0
KVP1 071341Z 09006KT M01/M04 A303 RMK A01 T10141041  RH  082%=      5-min Rain = 0
KVP1 071342Z 08005KT M01/M04 A303 RMK A01 T10141041  RH  082%=      5-min Rain = 0
KVP1 071343Z 08005KT M01/M04 A303 RMK A01 T10141041  RH  082%=      5-min Rain = 0
KVP1 071344Z 08005KT M01/M04 A303 RMK A01 T10141040  RH  082%=      5-min Rain = 0
KVP1 071345Z 09006KT M01/M04 A303 RMK A01 T10141041  RH  082%=      5-min Rain = 0
KVP1 071346Z 09005KT M01/M04 A303 RMK A01 T10141041  RH  082%=      5-min Rain = 0
KVP1 071347Z 09006KT M01/M04 A303 RMK A01 T10141041  RH  082%=      5-min Rain = 0
KVP1 071348Z 09007KT M01/M04 A303 RMK A01 T10141041  RH  082%=      5-min Rain = 0
KVP1 071349Z 09006KT M01/M04 A303 RMK A01 T10141041  RH  082%=      5-min Rain = 0
KVP1 071350Z 08006KT M01/M04 A303 RMK A01 T10141041  RH  082%=      5-min Rain = 0
KVP1 071351Z 09006KT M01/M04 A303 RMK A01 T10141041  RH  082%=      5-min Rain = 0
KVP1 071352Z 10006KT M01/M04 A303 RMK A01 T10141041  RH  082%=      5-min Rain = 0
KVP1 071353Z 09005KT M01/M04 A303 RMK A01 T10141041  RH  082%=      5-min Rain = 0
KVP1 071354Z 09004KT M01/M04 A3031 RMK A01 T10141040  RH  082%=      5-min Rain = 0
KVP1 071355Z 07004KT M01/M04 A3031 RMK A01 T10141040  RH  082%=      5-min Rain = 0
KVP1 071356Z 08006KT M01/M04 A3031 RMK A01 T10141041  RH  082%=      5-min Rain = 0
KVP1 071357Z 08005KT M01/M04 A3031 RMK A01 T10141041  RH  082%=      5-min Rain = 0
KVP1 071358Z 08006KT M01/M04 A3031 RMK A01 T10141041  RH  082%=      5-min Rain = 0
KVP1 071359Z 07005KT M01/M04 A3031 RMK A01 T10141041  RH  082%=      5-min Rain = 0
KVP1 071400Z 08005KT M01/M04 A3031 RMK A01 T10141041  RH  082%=      5-min Rain = 0
KVP1 071401Z 08005KT M01/M04 A3031 RMK A01 T10141041  RH  082%=      5-min Rain = 0
KVP1 071402Z 08005KT M01/M04 A3031 RMK A01 T10141040  RH  082%=      5-min Rain = 0
KVP1 071403Z 07004KT M01/M04 A3031 RMK A01 T10141040  RH  082%=      5-min Rain = 0
KVP1 071404Z 07005KT M01/M04 A3031 RMK A01 T10141040  RH  082%=      5-min Rain = 0
KVP1 071405Z 07005KT M01/M04 A3031 RMK A01 T10141041  RH  082%=      5-min Rain = 0
KVP1 071406Z 07005KT M01/M04 A3031 RMK A01 T10141041  RH  082%=      5-min Rain = 0
KVP1 071407Z 08004KT M01/M04 A3031 RMK A01 T10141041  RH  082%=      5-min Rain = 0
KVP1 071408Z 07004KT M01/M04 A3031 RMK A01 T10141041  RH  082%=      5-min Rain = 0
KVP1 071409Z 08005KT M01/M04 A3031 RMK A01 T10141041  RH  082%=      5-min Rain = 0
KVP1 071410Z 08005KT M01/M04 A3031 RMK A01 T10141040  RH  082%=      5-min Rain = 0
KVP1 071411Z 06004KT M01/M04 A3031 RMK A01 T10141041  RH  082%=      5-min Rain = 0
KVP1 071412Z 07006KT M01/M04 A3031 RMK A01 T10141040  RH  082%=      5-min Rain = 0
KVP1 071413Z 07005KT M01/M04 A3031 RMK A01 T10141040  RH  082%=      5-min Rain = 0
KVP1 071414Z 08005KT M01/M04 A3031 RMK A01 T10141041  RH  082%=      5-min Rain = 0
KVP1 071415Z 07004KT M01/M04 A3031 RMK A01 T10131041  RH  082%=      5-min Rain = 0
KVP1 071416Z 07004KT M01/M04 A3031 RMK A01 T10131040  RH  082%=      5-min Rain = 0
KVP1 071417Z 07005KT M01/M04 A3031 RMK A01 T10131040  RH  082%=      5-min Rain = 0
KVP1 071418Z 08004KT M01/M04 A3031 RMK A01 T10131041  RH  082%=      5-min Rain = 0
KVP1 071419Z 06004KT M01/M04 A3031 RMK A01 T10131041  RH  082%=      5-min Rain = 0
KVP1 071420Z 07004KT M01/M04 A3031 RMK A01 T10131040  RH  082%=      5-min Rain = 0
KVP1 071421Z 07006KT M01/M04 A3031 RMK A01 T10131040  RH  082%=      5-min Rain = 0
KVP1 071422Z 07005KT M01/M04 A3031 RMK A01 T10131040  RH  082%=      5-min Rain = 0
KVP1 071423Z 07005KT M01/M04 A3031 RMK A01 T10131041  RH  082%=      5-min Rain = 0
KVP1 071424Z 07006KT M01/M04 A3031 RMK A01 T10131041  RH  082%=      5-min Rain = 0
KVP1 071425Z 06006KT M01/M04 A3031 RMK A01 T10131041  RH  082%=      5-min Rain = 0
KVP1 071426Z 06006KT M01/M04 A3031 RMK A01 T10131040  RH  082%=      5-min Rain = 0
KVP1 071427Z 06006KT M01/M04 A3031 RMK A01 T10131040  RH  082%=      5-min Rain = 0
KVP1 071428Z 07007KT M01/M04 A3031 RMK A01 T10131040  RH  082%=      5-min Rain = 0
KVP1 071429Z 07006KT M01/M04 A3031 RMK A01 T10131041  RH  082%=      5-min Rain = 0
KVP1 071430Z 06007KT M01/M04 A3031 RMK A01 T10131041  RH  082%=      5-min Rain = 0
KVP1 071431Z 08005KT M01/M04 A3032 RMK A01 T10131041  RH  082%=      5-min Rain = 0
KVP1 071432Z 08005KT M01/M04 A3032 RMK A01 T10131040  RH  082%=      5-min Rain = 0
KVP1 071433Z 08004KT M01/M04 A3032 RMK A01 T10131039  RH  082%=      5-min Rain = 0
KVP1 071434Z 08004KT M01/M04 A3032 RMK A01 T10131040  RH  082%=      5-min Rain = 0
KVP1 071435Z 08006KT M01/M04 A3032 RMK A01 T10131040  RH  082%=      5-min Rain = 0
KVP1 071436Z 09006KT M01/M04 A3032 RMK A01 T10121040  RH  082%=      5-min Rain = 0
KVP1 071437Z 09006KT M01/M04 A3033 RMK A01 T10121040  RH  082%=      5-min Rain = 0
KVP1 071438Z 09006KT M01/M04 A3033 RMK A01 T10121040  RH  082%=      5-min Rain = 0
KVP1 071439Z 09005KT M01/M04 A3033 RMK A01 T10121040  RH  082%=      5-min Rain = 0
KVP1 071440Z 10004KT M01/M04 A3034 RMK A01 T10131039  RH  082%=      5-min Rain = 0
KVP1 071441Z 10005KT M01/M04 A3034 RMK A01 T10121039  RH  082%=      5-min Rain = 0
KVP1 071442Z 09005KT M01/M04 A3034 RMK A01 T10121039  RH  082%=      5-min Rain = 0
KVP1 071443Z 08004KT M01/M04 A3034 RMK A01 T10121039  RH  082%=      5-min Rain = 0
KVP1 071444Z 08005KT M01/M04 A3034 RMK A01 T10121039  RH  082%=      5-min Rain = 0
KVP1 071445Z 09005KT M01/M04 A3034 RMK A01 T10121039  RH  082%=      5-min Rain = 0
KVP1 071446Z 09006KT M01/M04 A3034 RMK A01 T10121039  RH  082%=      5-min Rain = 0
KVP1 071447Z 09005KT M01/M04 A3034 RMK A01 T10121040  RH  082%=      5-min Rain = 0
KVP1 071448Z 09005KT M01/M04 A3034 RMK A01 T10121039  RH  082%=      5-min Rain = 0
KVP1 071449Z 09006KT M01/M04 A3034 RMK A01 T10121039  RH  082%=      5-min Rain = 0
KVP1 071450Z 09005KT M01/M04 A3034 RMK A01 T10121039  RH  082%=      5-min Rain = 0
KVP1 071451Z 09005KT M01/M04 A3034 RMK A01 T10121038  RH  082%=      5-min Rain = 0
KVP1 071452Z 09005KT M01/M04 A3034 RMK A01 T10121038  RH  083%=      5-min Rain = 0
KVP1 071453Z 09006KT M01/M04 A3034 RMK A01 T10121039  RH  082%=      5-min Rain = 0
KVP1 071454Z 09006KT M01/M04 A3034 RMK A01 T10131039  RH  082%=      5-min Rain = 0
KVP1 071455Z 09005KT M01/M04 A3034 RMK A01 T10121038  RH  083%=      5-min Rain = 0
KVP1 071456Z 11005KT M01/M04 A3034 RMK A01 T10121037  RH  083%=      5-min Rain = 0
KVP1 071457Z 11005KT M01/M04 A3034 RMK A01 T10121038  RH  083%=      5-min Rain = 0
KVP1 071458Z 11006KT M01/M04 A3034 RMK A01 T10121038  RH  083%=      5-min Rain = 0
KVP1 071459Z 10006KT M01/M04 A3034 RMK A01 T10121038  RH  083%=      5-min Rain = 0
KVP1 071500Z 11006KT M01/M04 A3034 RMK A01 T10121038  RH  083%=      5-min Rain = 0
KVP1 071501Z 11006KT M01/M04 A3034 RMK A01 T10121038  RH  083%=      5-min Rain = 0
KVP1 071502Z 11006KT M01/M04 A3035 RMK A01 T10121037  RH  083%=      5-min Rain = 0
KVP1 071503Z 11006KT M01/M04 A3035 RMK A01 T10121038  RH  083%=      5-min Rain = 0
KVP1 071504Z 10006KT M01/M04 A3035 RMK A01 T10121038  RH  083%=      5-min Rain = 0
KVP1 071505Z 09005KT M01/M04 A3035 RMK A01 T10111037  RH  083%=      5-min Rain = 0
KVP1 071506Z 09005KT M01/M04 A3035 RMK A01 T10111036  RH  083%=      5-min Rain = 0
KVP1 071507Z 09004KT M01/M04 A3035 RMK A01 T10111037  RH  083%=      5-min Rain = 0
KVP1 071508Z 10005KT M01/M04 A3035 RMK A01 T10111037  RH  083%=      5-min Rain = 0
KVP1 071509Z 11004KT M01/M04 A3035 RMK A01 T10111036  RH  083%=      5-min Rain = 0
KVP1 071510Z 10004KT M01/M04 A3035 RMK A01 T10101037  RH  082%=      5-min Rain = 0
KVP1 071511Z 11005KT M01/M04 A3035 RMK A01 T10101037  RH  082%=      5-min Rain = 0
KVP1 071512Z 12005KT M01/M04 A3035 RMK A01 T10111038  RH  082%=      5-min Rain = 0
KVP1 071513Z 13005KT M01/M04 A3035 RMK A01 T10111037  RH  083%=      5-min Rain = 0
KVP1 071514Z 12005KT M01/M04 A3035 RMK A01 T10111037  RH  083%=      5-min Rain = 0
KVP1 071515Z 13005KT M01/M04 A3035 RMK A01 T10111037  RH  083%=      5-min Rain = 0
KVP1 071516Z 12006KT M01/M04 A3035 RMK A01 T10111037  RH  083%=      5-min Rain = 0
KVP1 071517Z 11006KT M01/M04 A3035 RMK A01 T10111037  RH  083%=      5-min Rain = 0
KVP1 071518Z 11005KT M01/M04 A3035 RMK A01 T10111037  RH  083%=      5-min Rain = 0
KVP1 071519Z 12004KT M01/M04 A3035 RMK A01 T10111037  RH  083%=      5-min Rain = 0
KVP1 071520Z 13004KT M01/M04 A3035 RMK A01 T10111037  RH  083%=      5-min Rain = 0
KVP1 071521Z 12004KT M01/M04 A3035 RMK A01 T10111036  RH  083%=      5-min Rain = 0
KVP1 071522Z 12005KT M01/M04 A3035 RMK A01 T10111037  RH  083%=      5-min Rain = 0
KVP1 071523Z 12003KT M01/M04 A3035 RMK A01 T10111037  RH  082%=      5-min Rain = 0
KVP1 071524Z 12005KT M01/M04 A3036 RMK A01 T10111037  RH  083%=      5-min Rain = 0
KVP1 071525Z 11004KT M01/M04 A3036 RMK A01 T10101036  RH  083%=      5-min Rain = 0
KVP1 071526Z 12004KT M01/M04 A3036 RMK A01 T10111036  RH  083%=      5-min Rain = 0
KVP1 071527Z 13004KT M01/M04 A3035 RMK A01 T10101036  RH  083%=      5-min Rain = 0
KVP1 071528Z 13004KT M01/M04 A3035 RMK A01 T10101035  RH  083%=      5-min Rain = 0
KVP1 071529Z 10004KT M01/M04 A3035 RMK A01 T10101035  RH  083%=      5-min Rain = 0
KVP1 071530Z 10005KT M01/M04 A3035 RMK A01 T10101035  RH  083%=      5-min Rain = 0
KVP1 071531Z 10005KT M01/M04 A3035 RMK A01 T10091035  RH  083%=      5-min Rain = 0
KVP1 071532Z 11005KT M01/M04 A3035 RMK A01 T10091035  RH  083%=      5-min Rain = 0
KVP1 071533Z 11006KT M01/M04 A3035 RMK A01 T10091035  RH  083%=      5-min Rain = 0
KVP1 071534Z 10005KT M01/M04 A3035 RMK A01 T10091035  RH  082%=      5-min Rain = 0
KVP1 071535Z 09004KT M01/M04 A3035 RMK A01 T10101037  RH  082%=      5-min Rain = 0
KVP1 071536Z 10005KT M01/M04 A3035 RMK A01 T10111037  RH  082%=      5-min Rain = 0
KVP1 071537Z 10004KT M01/M04 A3035 RMK A01 T10111037  RH  082%=      5-min Rain = 0
KVP1 071538Z 10003KT M01/M04 A3035 RMK A01 T10111037  RH  082%=      5-min Rain = 0
KVP1 071539Z 10003KT M01/M04 A3035 RMK A01 T10111038  RH  082%=      5-min Rain = 0
KVP1 071540Z 09003KT M01/M04 A3035 RMK A01 T10111037  RH  083%=      5-min Rain = 0
KVP1 071541Z 09004KT M01/M04 A3035 RMK A01 T10111036  RH  083%=      5-min Rain = 0
KVP1 071542Z 08004KT M01/M04 A3035 RMK A01 T10111036  RH  083%=      5-min Rain = 0
KVP1 071543Z 09004KT M01/M04 A3035 RMK A01 T10111036  RH  083%=      5-min Rain = 0
KVP1 071544Z 09003KT M01/M04 A3035 RMK A01 T10101036  RH  083%=      5-min Rain = 0
KVP1 071545Z 09004KT M01/M04 A3035 RMK A01 T10101036  RH  083%=      5-min Rain = 0
KVP1 071546Z 09003KT M01/M04 A3035 RMK A01 T10111036  RH  083%=      5-min Rain = 0
KVP1 071547Z 10004KT M01/M04 A3035 RMK A01 T10111036  RH  083%=      5-min Rain = 0
KVP1 071548Z 09003KT M01/M04 A3035 RMK A01 T10111037  RH  083%=      5-min Rain = 0
KVP1 071549Z 09004KT M01/M04 A3035 RMK A01 T10111036  RH  083%=      5-min Rain = 0
KVP1 071550Z 08005KT M01/M04 A3035 RMK A01 T10111035  RH  084%=      5-min Rain = 0
KVP1 071551Z 08004KT M01/M03 A3035 RMK A01 T10111034  RH  084%=      5-min Rain = 0
KVP1 071552Z 07004KT M01/M04 A3035 RMK A01 T10111035  RH  084%=      5-min Rain = 0
KVP1 071553Z 09004KT M01/M04 A3034 RMK A01 T10111035  RH  084%=      5-min Rain = 0
KVP1 071554Z 09004KT M01/M03 A3034 RMK A01 T10111034  RH  084%=      5-min Rain = 0
KVP1 071555Z 08005KT M01/M03 A3034 RMK A01 T10101033  RH  085%=      5-min Rain = 0
KVP1 071556Z 08005KT M01/M03 A3034 RMK A01 T10101033  RH  084%=      5-min Rain = 0
KVP1 071557Z 09005KT M01/M03 A3034 RMK A01 T10111033  RH  085%=      5-min Rain = 0
KVP1 071558Z 10005KT M01/M03 A3034 RMK A01 T10121032  RH  086%=      5-min Rain = 0
KVP1 071559Z 09007KT M01/M03 A3034 RMK A01 T10121031  RH  087%=      5-min Rain = 0
KVP1 071600Z 10007KT M01/M03 A3034 RMK A01 T10111030  RH  087%=      5-min Rain = 0
KVP1 071601Z 10006KT M01/M03 A3034 RMK A01 T10111029  RH  088%=      5-min Rain = 0
KVP1 071602Z 10006KT M01/M03 A3034 RMK A01 T10121029  RH  088%=      5-min Rain = 0
KVP1 071603Z 09006KT M01/M03 A3034 RMK A01 T10121029  RH  088%=      5-min Rain = 0
KVP1 071604Z 09007KT M01/M03 A3034 RMK A01 T10121028  RH  089%=      5-min Rain = 0
KVP1 071605Z 09007KT M01/M03 A3033 RMK A01 T10131028  RH  089%=      5-min Rain = 0
KVP1 071606Z 10005KT M01/M03 A3034 RMK A01 T10131029  RH  089%=      5-min Rain = 0
KVP1 071607Z 09004KT M01/M03 A3034 RMK A01 T10131028  RH  090%=      5-min Rain = 0
KVP1 071608Z 09005KT M01/M03 A3034 RMK A01 T10131027  RH  090%=      5-min Rain = 0
KVP1 071609Z 10005KT M01/M03 A3034 RMK A01 T10121025  RH  091%=      5-min Rain = 0
KVP1 071610Z 11005KT M01/M02 A3033 RMK A01 T10121024  RH  091%=      5-min Rain = 0
KVP1 071611Z 10004KT M01/M02 A3034 RMK A01 T10121024  RH  091%=      5-min Rain = 0
KVP1 071612Z 11005KT M01/M02 A3034 RMK A01 T10111024  RH  092%=      5-min Rain = 0
KVP1 071613Z 11004KT M01/M02 A3034 RMK A01 T10121024  RH  091%=      5-min Rain = 0
KVP1 071614Z 11004KT M01/M03 A3034 RMK A01 T10121026  RH  091%=      5-min Rain = 0
KVP1 071615Z 11005KT M01/M03 A3034 RMK A01 T10121025  RH  091%=      5-min Rain = 0
KVP1 071616Z 11005KT M01/M03 A3034 RMK A01 T10121026  RH  091%=      5-min Rain = 0
KVP1 071617Z 11005KT M01/M03 A3034 RMK A01 T10131026  RH  091%=      5-min Rain = 0
KVP1 071618Z 11005KT M01/M03 A3034 RMK A01 T10131026  RH  091%=      5-min Rain = 0
KVP1 071619Z 10005KT M01/M03 A3034 RMK A01 T10131025  RH  091%=      5-min Rain = 0
KVP1 071620Z 10005KT M01/M03 A3034 RMK A01 T10131027  RH  091%=      5-min Rain = 0
KVP1 071621Z 09005KT M01/M03 A3034 RMK A01 T10131025  RH  091%=      5-min Rain = 0
KVP1 071622Z 09005KT M01/M02 A3034 RMK A01 T10131024  RH  092%=      5-min Rain = 0
KVP1 071623Z 09004KT M01/M02 A3034 RMK A01 T10131024  RH  092%=      5-min Rain = 0
KVP1 071624Z 08005KT M01/M02 A3034 RMK A01 T10121024  RH  092%=      5-min Rain = 0
KVP1 071625Z 08004KT M01/M03 A3034 RMK A01 T10131025  RH  091%=      5-min Rain = 0
KVP1 071626Z 08004KT M01/M03 A3034 RMK A01 T10131026  RH  091%=      5-min Rain = 0
KVP1 071627Z 09004KT M01/M03 A3034 RMK A01 T10131025  RH  092%=      5-min Rain = 0
KVP1 071628Z 09004KT M01/M03 A3034 RMK A01 T10141026  RH  091%=      5-min Rain = 0
KVP1 071629Z 08004KT M01/M03 A3034 RMK A01 T10141028  RH  091%=      5-min Rain = 0
KVP1 071630Z 07003KT M01/M03 A3034 RMK A01 T10141028  RH  090%=      5-min Rain = 0
KVP1 071631Z 08004KT M01/M03 A3034 RMK A01 T10141027  RH  091%=      5-min Rain = 0
KVP1 071632Z 07004KT M01/M03 A3034 RMK A01 T10141026  RH  092%=      5-min Rain = 0
KVP1 071633Z 06003KT M01/M03 A3034 RMK A01 T10141025  RH  092%=      5-min Rain = 0
KVP1 071634Z 05002KT M01/M03 A3034 RMK A01 T10141025  RH  092%=      5-min Rain = 0
KVP1 071635Z 05003KT M01/M03 A3034 RMK A01 T10131025  RH  092%=      5-min Rain = 0
KVP1 071636Z 05003KT M01/M03 A3034 RMK A01 T10141025  RH  092%=      5-min Rain = 0
KVP1 071637Z 05004KT M01/M03 A3034 RMK A01 T10141025  RH  092%=      5-min Rain = 0
KVP1 071638Z 05004KT M01/M03 A3034 RMK A01 T10141025  RH  092%=      5-min Rain = 0
KVP1 071639Z 06004KT M01/M03 A3034 RMK A01 T10141027  RH  091%=      5-min Rain = 0
KVP1 071640Z 06004KT M02/M03 A3034 RMK A01 T10151027  RH  091%=      5-min Rain = 0
KVP1 071641Z 05004KT M02/M03 A3034 RMK A01 T10151026  RH  092%=      5-min Rain = 0
KVP1 071642Z 07004KT M01/M03 A3034 RMK A01 T10141026  RH  092%=      5-min Rain = 0
KVP1 071643Z 06004KT M02/M03 A3033 RMK A01 T10151026  RH  092%=      5-min Rain = 0
KVP1 071644Z 06004KT M01/M03 A3033 RMK A01 T10141025  RH  092%=      5-min Rain = 0
KVP1 071645Z 06005KT M01/M02 A3033 RMK A01 T10131023  RH  093%=      5-min Rain = 0
KVP1 071646Z 06005KT M01/M03 A3033 RMK A01 T10141025  RH  092%=      5-min Rain = 0
KVP1 071647Z 05004KT M01/M03 A3033 RMK A01 T10141025  RH  092%=      5-min Rain = 0
KVP1 071648Z 06003KT M01/M03 A3033 RMK A01 T10141025  RH  093%=      5-min Rain = 0
KVP1 071649Z 06004KT M01/M02 A3033 RMK A01 T10141023  RH  093%=      5-min Rain = 0
KVP1 071650Z 05005KT M01/M02 A3034 RMK A01 T10131022  RH  094%=      5-min Rain = 0
KVP1 071651Z 06004KT M01/M02 A3033 RMK A01 T10141024  RH  093%=      5-min Rain = 0
KVP1 071652Z 07004KT M01/M02 A3033 RMK A01 T10141024  RH  093%=      5-min Rain = 0.01
KVP1 071653Z 06004KT M01/M02 A3033 RMK A01 T10141023  RH  094%=      5-min Rain = 0
KVP1 071654Z 06004KT M01/M02 A3033 RMK A01 T10141023  RH  094%=      5-min Rain = 0
KVP1 071655Z 06005KT M01/M02 A3033 RMK A01 T10141022  RH  094%=      5-min Rain = 0
KVP1 071656Z 06006KT M01/M02 A3033 RMK A01 T10131022  RH  094%=      5-min Rain = 0.01
KVP1 071657Z 06006KT M01/M02 A3033 RMK A01 T10141023  RH  094%=      5-min Rain = 0
KVP1 071658Z 06006KT M01/M02 A3033 RMK A01 T10141023  RH  094%=      5-min Rain = 0
KVP1 071659Z 07006KT M01/M02 A3033 RMK A01 T10141022  RH  094%=      5-min Rain = 0.01
KVP1 071700Z 07006KT M01/M02 A3033 RMK A01 T10141022  RH  094%=      5-min Rain = 0
KVP1 071701Z 07005KT M01/M02 A3033 RMK A01 T10141023  RH  094%=      5-min Rain = 0
KVP1 071702Z 06006KT M01/M02 A3032 RMK A01 T10141022  RH  094%=      5-min Rain = 0
KVP1 071703Z 07007KT M01/M02 A3032 RMK A01 T10141022  RH  095%=      5-min Rain = 0
KVP1 071704Z 07006KT M01/M02 A3032 RMK A01 T10141022  RH  095%=      5-min Rain = 0
KVP1 071705Z 07007KT M01/M02 A3032 RMK A01 T10141022  RH  095%=      5-min Rain = 0
KVP1 071706Z 07006KT M01/M02 A3032 RMK A01 T10141022  RH  095%=      5-min Rain = 0
KVP1 071707Z 06005KT M01/M02 A3032 RMK A01 T10141021  RH  095%=      5-min Rain = 0
KVP1 071708Z 07006KT M01/M02 A3032 RMK A01 T10141020  RH  095%=      5-min Rain = 0
KVP1 071709Z 07007KT M01/M02 A3032 RMK A01 T10141020  RH  095%=      5-min Rain = 0
KVP1 071710Z 07006KT M01/M02 A3033 RMK A01 T10141022  RH  095%=      5-min Rain = 0
KVP1 071711Z 06006KT M02/M02 A3033 RMK A01 T10151023  RH  095%=      5-min Rain = 0
KVP1 071712Z 06005KT M02/M02 A3033 RMK A01 T10151023  RH  094%=      5-min Rain = 0
KVP1 071713Z 06005KT M02/M02 A3033 RMK A01 T10151023  RH  094%=      5-min Rain = 0
KVP1 071714Z 06007KT M02/M02 A3033 RMK A01 T10151023  RH  094%=      5-min Rain = 0.01
KVP1 071715Z 05007KT M02/M03 A3033 RMK A01 T10161025  RH  094%=      5-min Rain = 0
KVP1 071716Z 04007KT M02/M03 A3033 RMK A01 T10171026  RH  094%=      5-min Rain = 0
KVP1 071717Z 05007KT M02/M03 A3033 RMK A01 T10171026  RH  094%=      5-min Rain = 0
KVP1 071718Z 04007KT M02/M03 A3032 RMK A01 T10171027  RH  094%=      5-min Rain = 0
KVP1 071719Z 05007KT M02/M03 A3032 RMK A01 T10181028  RH  093%=      5-min Rain = 0
KVP1 071720Z 06008KT M02/M03 A3032 RMK A01 T10181028  RH  093%=      5-min Rain = 0
KVP1 071721Z 05007KT M02/M03 A3032 RMK A01 T10181028  RH  093%=      5-min Rain = 0
KVP1 071722Z 06007KT M02/M03 A3032 RMK A01 T10191028  RH  093%=      5-min Rain = 0
KVP1 071723Z 05007KT M02/M03 A3032 RMK A01 T10191029  RH  093%=      5-min Rain = 0
KVP1 071724Z 06007KT M02/M03 A3031 RMK A01 T10181027  RH  094%=      5-min Rain = 0
KVP1 071725Z 06008KT M02/M03 A3031 RMK A01 T10181027  RH  094%=      5-min Rain = 0
KVP1 071726Z 05007KT M02/M03 A3031 RMK A01 T10181027  RH  094%=      5-min Rain = 0
KVP1 071727Z 05008KT M02/M03 A3031 RMK A01 T10181027  RH  094%=      5-min Rain = 0
KVP1 071728Z 05007KT M02/M03 A3031 RMK A01 T10191028  RH  093%=      5-min Rain = 0
KVP1 071729Z 05008KT M02/M03 A3031 RMK A01 T10191028  RH  094%=      5-min Rain = 0
KVP1 071730Z 05009KT M02/M03 A3031 RMK A01 T10191029  RH  093%=      5-min Rain = 0
KVP1 071731Z 05009KT M02/M03 A3031 RMK A01 T10191029  RH  093%=      5-min Rain = 0
KVP1 071732Z 05008KT M02/M03 A3031 RMK A01 T10201030  RH  093%=      5-min Rain = 0
KVP1 071733Z 05007KT M02/M03 A3031 RMK A01 T10201030  RH  093%=      5-min Rain = 0
KVP1 071734Z 06007KT M02/M03 A3031 RMK A01 T10201029  RH  093%=      5-min Rain = 0
KVP1 071735Z 06007KT M02/M03 A3031 RMK A01 T10201029  RH  094%=      5-min Rain = 0
KVP1 071736Z 06009KT M02/M03 A3031 RMK A01 T10191028  RH  094%=      5-min Rain = 0
KVP1 071737Z 05007KT M02/M03 A3031 RMK A01 T10191028  RH  094%=      5-min Rain = 0
KVP1 071738Z 05007KT M02/M03 A3031 RMK A01 T10191028  RH  094%=      5-min Rain = 0
KVP1 071739Z 06008KT M02/M03 A3031 RMK A01 T10191028  RH  094%=      5-min Rain = 0
KVP1 071740Z 06008KT M02/M03 A3031 RMK A01 T10201029  RH  094%=      5-min Rain = 0
KVP1 071741Z 06007KT M02/M03 A3031 RMK A01 T10201029  RH  094%=      5-min Rain = 0
KVP1 071742Z 06007KT M02/M03 A3031 RMK A01 T10191027  RH  094%=      5-min Rain = 0
KVP1 071743Z 06008KT M02/M03 A3031 RMK A01 T10191027  RH  094%=      5-min Rain = 0
KVP1 071744Z 06008KT M02/M03 A3031 RMK A01 T10191028  RH  094%=      5-min Rain = 0
KVP1 071745Z 05007KT M02/M03 A3031 RMK A01 T10201029  RH  094%=      5-min Rain = 0
KVP1 071746Z 05007KT M02/M03 A3031 RMK A01 T10201028  RH  094%=      5-min Rain = 0
KVP1 071747Z 06007KT M02/M03 A3031 RMK A01 T10201029  RH  094%=      5-min Rain = 0
KVP1 071748Z 06007KT M02/M03 A3031 RMK A01 T10201029  RH  094%=      5-min Rain = 0
KVP1 071749Z 05007KT M02/M03 A3031 RMK A01 T10201028  RH  094%=      5-min Rain = 0
KVP1 071750Z 05006KT M02/M03 A3031 RMK A01 T10201028  RH  094%=      5-min Rain = 0
KVP1 071751Z 04006KT M02/M03 A3031 RMK A01 T10201028  RH  094%=      5-min Rain = 0
KVP1 071752Z 05006KT M02/M03 A3032 RMK A01 T10201028  RH  094%=      5-min Rain = 0
KVP1 071753Z 05007KT M02/M03 A3032 RMK A01 T10201028  RH  094%=      5-min Rain = 0
KVP1 071754Z 06006KT M02/M03 A3032 RMK A01 T10211029  RH  094%=      5-min Rain = 0
KVP1 071755Z 06005KT M02/M03 A3032 RMK A01 T10211029  RH  094%=      5-min Rain = 0
KVP1 071756Z 07006KT M02/M03 A3032 RMK A01 T10211029  RH  094%=      5-min Rain = 0
KVP1 071757Z 05005KT M02/M03 A3031 RMK A01 T10211029  RH  094%=      5-min Rain = 0
KVP1 071758Z 05005KT M02/M03 A3031 RMK A01 T10201029  RH  094%=      5-min Rain = 0
KVP1 071759Z 06005KT M02/M03 A3031 RMK A01 T10211029  RH  094%=      5-min Rain = 0
KVP1 071800Z 08005KT M02/M03 A3031 RMK A01 T10201028  RH  094%=      5-min Rain = 0
KVP1 071801Z 07005KT M02/M03 A3031 RMK A01 T10211029  RH  094%=      5-min Rain = 0
KVP1 071802Z 07005KT M02/M03 A3031 RMK A01 T10201028  RH  095%=      5-min Rain = 0
KVP1 071803Z 06005KT M02/M03 A3031 RMK A01 T10201028  RH  095%=      5-min Rain = 0
KVP1 071804Z 05006KT M02/M03 A303 RMK A01 T10201027  RH  095%=      5-min Rain = 0
KVP1 071805Z 05006KT M02/M03 A303 RMK A01 T10191027  RH  095%=      5-min Rain = 0
KVP1 071806Z 05006KT M02/M03 A303 RMK A01 T10201027  RH  095%=      5-min Rain = 0
KVP1 071807Z 06006KT M02/M03 A303 RMK A01 T10201028  RH  095%=      5-min Rain = 0
KVP1 071808Z 06006KT M02/M03 A303 RMK A01 T10201027  RH  095%=      5-min Rain = 0
KVP1 071809Z 06006KT M02/M03 A303 RMK A01 T10201027  RH  095%=      5-min Rain = 0
KVP1 071810Z 06006KT M02/M03 A303 RMK A01 T10201027  RH  095%=      5-min Rain = 0
KVP1 071811Z 06006KT M02/M03 A303 RMK A01 T10201027  RH  095%=      5-min Rain = 0
KVP1 071812Z 06006KT M02/M03 A303 RMK A01 T10201027  RH  095%=      5-min Rain = 0
KVP1 071813Z 06006KT M02/M03 A303 RMK A01 T10201028  RH  094%=      5-min Rain = 0
KVP1 071814Z 06005KT M02/M03 A303 RMK A01 T10201029  RH  094%=      5-min Rain = 0
KVP1 071815Z 05004KT M02/M03 A303 RMK A01 T10211029  RH  094%=      5-min Rain = 0
KVP1 071816Z 05005KT M02/M03 A303 RMK A01 T10201029  RH  094%=      5-min Rain = 0
KVP1 071817Z 06005KT M02/M03 A303 RMK A01 T10201028  RH  094%=      5-min Rain = 0
KVP1 071818Z 05005KT M02/M03 A303 RMK A01 T10201028  RH  095%=      5-min Rain = 0
KVP1 071819Z 04005KT M02/M03 A303 RMK A01 T10201028  RH  095%=      5-min Rain = 0
KVP1 071820Z 05005KT M02/M03 A303 RMK A01 T10201028  RH  095%=      5-min Rain = 0
KVP1 071821Z 04005KT M02/M03 A303 RMK A01 T10201028  RH  095%=      5-min Rain = 0
KVP1 071822Z 04005KT M02/M03 A3029 RMK A01 T10201028  RH  095%=      5-min Rain = 0
KVP1 071823Z 05006KT M02/M03 A3029 RMK A01 T10201027  RH  095%=      5-min Rain = 0
KVP1 071824Z 05006KT M02/M03 A3029 RMK A01 T10201028  RH  095%=      5-min Rain = 0
KVP1 071825Z 06004KT M02/M03 A3029 RMK A01 T10201028  RH  095%=      5-min Rain = 0
KVP1 071826Z 08004KT M02/M03 A3029 RMK A01 T10201028  RH  094%=      5-min Rain = 0
KVP1 071827Z 08003KT M02/M03 A3029 RMK A01 T10201028  RH  094%=      5-min Rain = 0
KVP1 071828Z 06003KT M02/M03 A3029 RMK A01 T10201028  RH  094%=      5-min Rain = 0
KVP1 071829Z 05004KT M02/M03 A3029 RMK A01 T10211029  RH  094%=      5-min Rain = 0
KVP1 071830Z 05005KT M02/M03 A3029 RMK A01 T10201028  RH  094%=      5-min Rain = 0
KVP1 071831Z 05004KT M02/M03 A3029 RMK A01 T10201028  RH  095%=      5-min Rain = 0
KVP1 071832Z 05004KT M02/M03 A3029 RMK A01 T10201027  RH  095%=      5-min Rain = 0
KVP1 071833Z 05004KT M02/M03 A3029 RMK A01 T10201027  RH  095%=      5-min Rain = 0
KVP1 071834Z 05005KT M02/M03 A3029 RMK A01 T10191026  RH  095%=      5-min Rain = 0
KVP1 071835Z 05005KT M02/M03 A3029 RMK A01 T10191026  RH  095%=      5-min Rain = 0
KVP1 071836Z 04006KT M02/M03 A3029 RMK A01 T10181025  RH  095%=      5-min Rain = 0
KVP1 071837Z 05005KT M02/M03 A3029 RMK A01 T10191027  RH  094%=      5-min Rain = 0
KVP1 071838Z 06005KT M02/M03 A3029 RMK A01 T10191027  RH  094%=      5-min Rain = 0
KVP1 071839Z 05005KT M02/M03 A3029 RMK A01 T10191027  RH  094%=      5-min Rain = 0
KVP1 071840Z 05004KT M02/M03 A3029 RMK A01 T10191027  RH  094%=      5-min Rain = 0
KVP1 071841Z 05005KT M02/M03 A3028 RMK A01 T10181026  RH  094%=      5-min Rain = 0
KVP1 071842Z 05005KT M02/M03 A3028 RMK A01 T10181026  RH  095%=      5-min Rain = 0
KVP1 071843Z 05005KT M02/M03 A3028 RMK A01 T10181026  RH  094%=      5-min Rain = 0
KVP1 071844Z 06006KT M02/M03 A3028 RMK A01 T10191027  RH  094%=      5-min Rain = 0
KVP1 071845Z 05005KT M02/M03 A3028 RMK A01 T10191027  RH  094%=      5-min Rain = 0
KVP1 071846Z 05005KT M02/M03 A3028 RMK A01 T10191027  RH  094%=      5-min Rain = 0
KVP1 071847Z 06005KT M02/M03 A3028 RMK A01 T10181026  RH  095%=      5-min Rain = 0
KVP1 071848Z 06005KT M02/M03 A3028 RMK A01 T10181026  RH  094%=      5-min Rain = 0
KVP1 071849Z 06005KT M02/M03 A3028 RMK A01 T10181026  RH  094%=      5-min Rain = 0
KVP1 071850Z 06004KT M02/M03 A3028 RMK A01 T10181026  RH  095%=      5-min Rain = 0
KVP1 071851Z 07004KT M02/M03 A3028 RMK A01 T10181026  RH  095%=      5-min Rain = 0
KVP1 071852Z 06005KT M02/M03 A3029 RMK A01 T10181025  RH  095%=      5-min Rain = 0
KVP1 071853Z 06004KT M02/M03 A3029 RMK A01 T10181025  RH  095%=      5-min Rain = 0
KVP1 071854Z 07004KT M02/M02 A3029 RMK A01 T10181024  RH  095%=      5-min Rain = 0
KVP1 071855Z 06005KT M02/M02 A3029 RMK A01 T10171024  RH  095%=      5-min Rain = 0
KVP1 071856Z 06003KT M02/M03 A3029 RMK A01 T10181025  RH  095%=      5-min Rain = 0
KVP1 071857Z 07002KT M02/M03 A3029 RMK A01 T10181026  RH  095%=      5-min Rain = 0
KVP1 071858Z 06002KT M02/M03 A3029 RMK A01 T10181026  RH  095%=      5-min Rain = 0
KVP1 071859Z 06002KT M02/M03 A3029 RMK A01 T10181025  RH  095%=      5-min Rain = 0
KVP1 071900Z 06002KT M02/M02 A3029 RMK A01 T10171024  RH  095%=      5-min Rain = 0
KVP1 071901Z 06003KT M02/M03 A3029 RMK A01 T10171025  RH  095%=      5-min Rain = 0
KVP1 071902Z 06004KT M02/M03 A3028 RMK A01 T10171025  RH  095%=      5-min Rain = 0
KVP1 071903Z 05004KT M02/M03 A3028 RMK A01 T10171025  RH  095%=      5-min Rain = 0
KVP1 071904Z 04003KT M02/M03 A3028 RMK A01 T10181025  RH  094%=      5-min Rain = 0
KVP1 071905Z 05004KT M02/M03 A3028 RMK A01 T10181025  RH  095%=      5-min Rain = 0
KVP1 071906Z 05004KT M02/M03 A3028 RMK A01 T10171025  RH  095%=      5-min Rain = 0
KVP1 071907Z 05004KT M02/M03 A3028 RMK A01 T10171025  RH  094%=      5-min Rain = 0
KVP1 071908Z 04004KT M02/M03 A3028 RMK A01 T10181026  RH  094%=      5-min Rain = 0
KVP1 071909Z 04004KT M02/M03 A3028 RMK A01 T10181027  RH  094%=      5-min Rain = 0
KVP1 071910Z 04003KT M02/M03 A3028 RMK A01 T10181027  RH  094%=      5-min Rain = 0
KVP1 071911Z 04003KT M02/M03 A3028 RMK A01 T10181026  RH  094%=      5-min Rain = 0
KVP1 071912Z 06003KT M02/M02 A3028 RMK A01 T10161024  RH  094%=      5-min Rain = 0
KVP1 071913Z 07003KT M02/M02 A3028 RMK A01 T10161024  RH  094%=      5-min Rain = 0
KVP1 071914Z 09002KT M02/M02 A3028 RMK A01 T10161024  RH  094%=      5-min Rain = 0
KVP1 071915Z 08003KT M02/M02 A3028 RMK A01 T10161024  RH  094%=      5-min Rain = 0
KVP1 071916Z 07004KT M02/M02 A3028 RMK A01 T10161024  RH  094%=      5-min Rain = 0
KVP1 071917Z 07005KT M02/M02 A3028 RMK A01 T10161023  RH  095%=      5-min Rain = 0
KVP1 071918Z 08004KT M02/M02 A3028 RMK A01 T10161023  RH  094%=      5-min Rain = 0
KVP1 071919Z 07004KT M02/M03 A3028 RMK A01 T10161025  RH  094%=      5-min Rain = 0
KVP1 071920Z 06004KT M02/M02 A3028 RMK A01 T10161024  RH  094%=      5-min Rain = 0
KVP1 071921Z 07004KT M02/M02 A3028 RMK A01 T10151024  RH  094%=      5-min Rain = 0
KVP1 071922Z 06004KT M02/M02 A3028 RMK A01 T10161024  RH  094%=      5-min Rain = 0
KVP1 071923Z 06004KT M02/M03 A3027 RMK A01 T10161025  RH  094%=      5-min Rain = 0
KVP1 071924Z 08004KT M02/M03 A3027 RMK A01 T10161025  RH  094%=      5-min Rain = 0
KVP1 071925Z 08005KT M02/M02 A3027 RMK A01 T10151023  RH  094%=      5-min Rain = 0
KVP1 071926Z 08004KT M02/M02 A3027 RMK A01 T10151023  RH  094%=      5-min Rain = 0
KVP1 071927Z 07003KT M02/M02 A3027 RMK A01 T10161024  RH  094%=      5-min Rain = 0
KVP1 071928Z 07003KT M02/M02 A3027 RMK A01 T10161024  RH  094%=      5-min Rain = 0
KVP1 071929Z 07002KT M02/M02 A3027 RMK A01 T10151022  RH  095%=      5-min Rain = 0
KVP1 071930Z 08003KT M02/M02 A3027 RMK A01 T10151023  RH  095%=      5-min Rain = 0
KVP1 071931Z 08003KT M02/M02 A3027 RMK A01 T10151023  RH  094%=      5-min Rain = 0
KVP1 071932Z 08002KT M02/M02 A3027 RMK A01 T10161024  RH  094%=      5-min Rain = 0
KVP1 071933Z 08002KT M02/M02 A3027 RMK A01 T10161024  RH  094%=      5-min Rain = 0
KVP1 071934Z 07002KT M02/M02 A3027 RMK A01 T10161024  RH  094%=      5-min Rain = 0
KVP1 071935Z 07003KT M02/M02 A3027 RMK A01 T10151024  RH  094%=      5-min Rain = 0
KVP1 071936Z 07003KT M02/M02 A3027 RMK A01 T10151023  RH  094%=      5-min Rain = 0
KVP1 071937Z 06003KT M02/M02 A3027 RMK A01 T10151024  RH  094%=      5-min Rain = 0
KVP1 071938Z 07004KT M02/M02 A3027 RMK A01 T10151024  RH  094%=      5-min Rain = 0
KVP1 071939Z 07003KT M02/M02 A3027 RMK A01 T10151023  RH  094%=      5-min Rain = 0
KVP1 071940Z 07003KT M02/M02 A3027 RMK A01 T10151023  RH  094%=      5-min Rain = 0
KVP1 071941Z 07003KT M02/M02 A3027 RMK A01 T10151023  RH  094%=      5-min Rain = 0
KVP1 071942Z 07003KT M02/M02 A3027 RMK A01 T10151024  RH  094%=      5-min Rain = 0
KVP1 071943Z 08003KT M02/M02 A3027 RMK A01 T10151024  RH  093%=      5-min Rain = 0
KVP1 071944Z 09003KT M02/M02 A3027 RMK A01 T10151024  RH  093%=      5-min Rain = 0
KVP1 071945Z 08004KT M02/M02 A3027 RMK A01 T10151024  RH  094%=      5-min Rain = 0
KVP1 071946Z 07003KT M01/M02 A3027 RMK A01 T10141023  RH  094%=      5-min Rain = 0
KVP1 071947Z 07003KT M01/M02 A3027 RMK A01 T10141023  RH  094%=      5-min Rain = 0
KVP1 071948Z 08004KT M01/M02 A3027 RMK A01 T10141023  RH  094%=      5-min Rain = 0
KVP1 071949Z 07003KT M01/M02 A3027 RMK A01 T10141022  RH  094%=      5-min Rain = 0
KVP1 071950Z 07004KT M01/M02 A3027 RMK A01 T10141023  RH  094%=      5-min Rain = 0
KVP1 071951Z 04004KT M01/M02 A3027 RMK A01 T10141023  RH  093%=      5-min Rain = 0
KVP1 071952Z 04003KT M01/M02 A3027 RMK A01 T10141023  RH  093%=      5-min Rain = 0
KVP1 071953Z 04002KT M01/M02 A3027 RMK A01 T10131022  RH  093%=      5-min Rain = 0
KVP1 071954Z 04003KT M01/M02 A3027 RMK A01 T10131022  RH  094%=      5-min Rain = 0
KVP1 071955Z 06003KT M01/M02 A3027 RMK A01 T10131023  RH  093%=      5-min Rain = 0
KVP1 071956Z 08003KT M01/M02 A3027 RMK A01 T10131023  RH  093%=      5-min Rain = 0
KVP1 071957Z 08003KT M01/M02 A3027 RMK A01 T10131023  RH  093%=      5-min Rain = 0
KVP1 071958Z 07003KT M01/M02 A3027 RMK A01 T10131022  RH  093%=      5-min Rain = 0
KVP1 071959Z 06003KT M01/M02 A3027 RMK A01 T10121021  RH  094%=      5-min Rain = 0
KVP1 072000Z 06003KT M01/M02 A3027 RMK A01 T10121021  RH  094%=      5-min Rain = 0
KVP1 072001Z 05004KT M01/M02 A3027 RMK A01 T10131022  RH  093%=      5-min Rain = 0
KVP1 072002Z 06005KT M01/M02 A3027 RMK A01 T10131023  RH  093%=      5-min Rain = 0
KVP1 072003Z 05003KT M01/M02 A3027 RMK A01 T10131023  RH  093%=      5-min Rain = 0
KVP1 072004Z 05003KT M01/M02 A3027 RMK A01 T10131023  RH  093%=      5-min Rain = 0
KVP1 072005Z 06004KT M01/M02 A3027 RMK A01 T10131023  RH  093%=      5-min Rain = 0
KVP1 072006Z 05004KT M01/M02 A3027 RMK A01 T10131023  RH  093%=      5-min Rain = 0
KVP1 072007Z 05004KT M01/M02 A3027 RMK A01 T10131023  RH  093%=      5-min Rain = 0
KVP1 072008Z 04003KT M01/M02 A3027 RMK A01 T10121022  RH  093%=      5-min Rain = 0
KVP1 072009Z 05003KT M01/M02 A3027 RMK A01 T10131023  RH  093%=      5-min Rain = 0
KVP1 072010Z 06003KT M01/M02 A3027 RMK A01 T10131023  RH  093%=      5-min Rain = 0
KVP1 072011Z 05003KT M01/M02 A3027 RMK A01 T10121022  RH  093%=      5-min Rain = 0
KVP1 072012Z 05003KT M01/M02 A3027 RMK A01 T10121022  RH  093%=      5-min Rain = 0
KVP1 072013Z 06003KT M01/M02 A3027 RMK A01 T10121022  RH  093%=      5-min Rain = 0
KVP1 072014Z 06003KT M01/M02 A3027 RMK A01 T10121021  RH  093%=      5-min Rain = 0
KVP1 072015Z 03002KT M01/M02 A3028 RMK A01 T10111020  RH  094%=      5-min Rain = 0
KVP1 072016Z 02002KT M01/M02 A3028 RMK A01 T10111019  RH  094%=      5-min Rain = 0
KVP1 072017Z 02003KT M01/M02 A3028 RMK A01 T10111019  RH  094%=      5-min Rain = 0
KVP1 072018Z 03003KT M01/M02 A3028 RMK A01 T10111020  RH  094%=      5-min Rain = 0
KVP1 072019Z 03002KT M01/M02 A3028 RMK A01 T10121022  RH  093%=      5-min Rain = 0
KVP1 072020Z 02001KT M01/M02 A3028 RMK A01 T10121023  RH  092%=      5-min Rain = 0
KVP1 072021Z 02002KT M01/M02 A3028 RMK A01 T10121022  RH  093%=      5-min Rain = 0
KVP1 072022Z 01003KT M01/M02 A3028 RMK A01 T10111021  RH  093%=      5-min Rain = 0
KVP1 072023Z 01003KT M01/M02 A3028 RMK A01 T10111022  RH  092%=      5-min Rain = 0
KVP1 072024Z 02003KT M01/M02 A3028 RMK A01 T10121022  RH  092%=      5-min Rain = 0
KVP1 072025Z 02003KT M01/M02 A3028 RMK A01 T10111022  RH  093%=      5-min Rain = 0
KVP1 072026Z 01003KT M01/M02 A3028 RMK A01 T10111022  RH  092%=      5-min Rain = 0
KVP1 072027Z 00002KT M01/M02 A3029 RMK A01 T10111022  RH  092%=      5-min Rain = 0
KVP1 072028Z 35004KT M01/M02 A3028 RMK A01 T10111022  RH  092%=      5-min Rain = 0
KVP1 072029Z 00004KT M01/M02 A3028 RMK A01 T10111022  RH  092%=      5-min Rain = 0
KVP1 072030Z 01003KT M01/M02 A3028 RMK A01 T10111022  RH  092%=      5-min Rain = 0
KVP1 072031Z 01002KT M01/M02 A3028 RMK A01 T10121023  RH  092%=      5-min Rain = 0
KVP1 072032Z 03003KT M01/M02 A3028 RMK A01 T10111022  RH  092%=      5-min Rain = 0
KVP1 072033Z 04003KT M01/M02 A3028 RMK A01 T10111022  RH  093%=      5-min Rain = 0
KVP1 072034Z 03002KT M01/M02 A3028 RMK A01 T10111021  RH  093%=      5-min Rain = 0
KVP1 072035Z 02003KT M01/M02 A3028 RMK A01 T10111020  RH  094%=      5-min Rain = 0
KVP1 072036Z 01003KT M01/M02 A3028 RMK A01 T10111019  RH  094%=      5-min Rain = 0
KVP1 072037Z 01003KT M01/M02 A3028 RMK A01 T10111020  RH  093%=      5-min Rain = 0
KVP1 072038Z 02004KT M01/M02 A3028 RMK A01 T10111021  RH  093%=      5-min Rain = 0
KVP1 072039Z 03004KT M01/M02 A3028 RMK A01 T10121022  RH  092%=      5-min Rain = 0
KVP1 072040Z 02004KT M01/M02 A3028 RMK A01 T10111022  RH  093%=      5-min Rain = 0
KVP1 072041Z 02004KT M01/M02 A3028 RMK A01 T10111022  RH  092%=      5-min Rain = 0
KVP1 072042Z 02004KT M01/M02 A3028 RMK A01 T10121023  RH  092%=      5-min Rain = 0
KVP1 072043Z 00003KT M01/M02 A3028 RMK A01 T10111023  RH  092%=      5-min Rain = 0
KVP1 072044Z 00004KT M01/M02 A3028 RMK A01 T10121022  RH  092%=      5-min Rain = 0
KVP1 072045Z 01003KT M01/M02 A3028 RMK A01 T10111022  RH  092%=      5-min Rain = 0
KVP1 072046Z 01004KT M01/M02 A3028 RMK A01 T10111021  RH  093%=      5-min Rain = 0
KVP1 072047Z 02003KT M01/M02 A3028 RMK A01 T10101021  RH  093%=      5-min Rain = 0
KVP1 072048Z 02004KT M01/M02 A3028 RMK A01 T10111021  RH  093%=      5-min Rain = 0
KVP1 072049Z 02005KT M01/M02 A3028 RMK A01 T10101020  RH  093%=      5-min Rain = 0
KVP1 072050Z 01004KT M01/M02 A3028 RMK A01 T10101021  RH  093%=      5-min Rain = 0
KVP1 072051Z 02004KT M01/M02 A3027 RMK A01 T10111022  RH  092%=      5-min Rain = 0
KVP1 072052Z 02004KT M01/M02 A3027 RMK A01 T10111022  RH  092%=      5-min Rain = 0
KVP1 072053Z 02003KT M01/M02 A3027 RMK A01 T10111022  RH  092%=      5-min Rain = 0
KVP1 072054Z 36003KT M01/M02 A3027 RMK A01 T10111021  RH  093%=      5-min Rain = 0
KVP1 072055Z 35004KT M01/M02 A3027 RMK A01 T10101020  RH  093%=      5-min Rain = 0
KVP1 072056Z 35004KT M01/M02 A3027 RMK A01 T10101021  RH  093%=      5-min Rain = 0
KVP1 072057Z 36003KT M01/M02 A3027 RMK A01 T10101021  RH  092%=      5-min Rain = 0
KVP1 072058Z 34004KT M01/M02 A3027 RMK A01 T10101020  RH  092%=      5-min Rain = 0
KVP1 072059Z 35005KT M01/M02 A3027 RMK A01 T10091020  RH  093%=      5-min Rain = 0
KVP1 072100Z 35005KT M01/M02 A3027 RMK A01 T10091020  RH  092%=      5-min Rain = 0
KVP1 072101Z 36005KT M01/M02 A3027 RMK A01 T10091021  RH  092%=      5-min Rain = 0
KVP1 072102Z 36004KT M01/M02 A3027 RMK A01 T10101023  RH  091%=      5-min Rain = 0
KVP1 072103Z 35004KT M01/M02 A3027 RMK A01 T10101023  RH  091%=      5-min Rain = 0
KVP1 072104Z 00004KT M01/M02 A3027 RMK A01 T10101022  RH  091%=      5-min Rain = 0
KVP1 072105Z 01003KT M01/M02 A3027 RMK A01 T10101022  RH  092%=      5-min Rain = 0
KVP1 072106Z 02003KT M01/M02 A3026 RMK A01 T10101021  RH  092%=      5-min Rain = 0
KVP1 072107Z 01004KT M01/M02 A3026 RMK A01 T10091021  RH  092%=      5-min Rain = 0
KVP1 072108Z 01002KT M01/M02 A3026 RMK A01 T10091020  RH  092%=      5-min Rain = 0
KVP1 072109Z 01003KT M01/M02 A3026 RMK A01 T10091019  RH  093%=      5-min Rain = 0
KVP1 072110Z 01004KT M01/M02 A3026 RMK A01 T10081019  RH  093%=      5-min Rain = 0
KVP1 072111Z 02003KT M01/M02 A3026 RMK A01 T10081019  RH  092%=      5-min Rain = 0
KVP1 072112Z 01003KT M01/M02 A3026 RMK A01 T10081019  RH  092%=      5-min Rain = 0
KVP1 072113Z 01003KT M01/M02 A3026 RMK A01 T10081019  RH  092%=      5-min Rain = 0
KVP1 072114Z 02003KT M01/M02 A3026 RMK A01 T10081019  RH  092%=      5-min Rain = 0
KVP1 072115Z 02003KT M01/M02 A3026 RMK A01 T10081019  RH  092%=      5-min Rain = 0
KVP1 072116Z 02003KT M01/M02 A3026 RMK A01 T10081018  RH  093%=      5-min Rain = 0
KVP1 072117Z 02003KT M01/M02 A3026 RMK A01 T10081018  RH  093%=      5-min Rain = 0
KVP1 072118Z 00003KT M01/M02 A3026 RMK A01 T10071019  RH  092%=      5-min Rain = 0
KVP1 072119Z 00002KT M01/M02 A3026 RMK A01 T10071019  RH  092%=      5-min Rain = 0
KVP1 072120Z 36002KT M01/M02 A3026 RMK A01 T10071018  RH  093%=      5-min Rain = 0
KVP1 072121Z 36003KT M01/M02 A3026 RMK A01 T10061016  RH  093%=      5-min Rain = 0
KVP1 072122Z 01003KT M01/M02 A3026 RMK A01 T10061016  RH  093%=      5-min Rain = 0
KVP1 072123Z 36004KT M01/M02 A3026 RMK A01 T10071017  RH  093%=      5-min Rain = 0
KVP1 072124Z 00003KT M01/M02 A3026 RMK A01 T10071018  RH  092%=      5-min Rain = 0
KVP1 072125Z 36004KT M01/M02 A3026 RMK A01 T10071018  RH  092%=      5-min Rain = 0
KVP1 072126Z 00004KT M01/M02 A3026 RMK A01 T10071019  RH  092%=      5-min Rain = 0
KVP1 072127Z 35003KT M01/M02 A3026 RMK A01 T10071019  RH  092%=      5-min Rain = 0
KVP1 072128Z 02003KT M01/M02 A3026 RMK A01 T10071018  RH  092%=      5-min Rain = 0
KVP1 072129Z 01003KT M01/M02 A3025 RMK A01 T10061017  RH  092%=      5-min Rain = 0
KVP1 072130Z 00003KT M01/M02 A3025 RMK A01 T10061017  RH  092%=      5-min Rain = 0
KVP1 072131Z 36004KT M01/M02 A3026 RMK A01 T10061017  RH  093%=      5-min Rain = 0
KVP1 072132Z 00004KT M01/M02 A3026 RMK A01 T10071017  RH  092%=      5-min Rain = 0
KVP1 072133Z 01003KT M01/M02 A3026 RMK A01 T10071018  RH  092%=      5-min Rain = 0
KVP1 072134Z 36003KT M01/M02 A3026 RMK A01 T10071019  RH  092%=      5-min Rain = 0
KVP1 072135Z 36003KT M01/M02 A3026 RMK A01 T10071018  RH  092%=      5-min Rain = 0
KVP1 072136Z 36003KT M01/M02 A3026 RMK A01 T10061018  RH  092%=      5-min Rain = 0
KVP1 072137Z 36003KT M01/M02 A3026 RMK A01 T10061018  RH  092%=      5-min Rain = 0
KVP1 072138Z 36003KT M01/M02 A3026 RMK A01 T10071019  RH  092%=      5-min Rain = 0
KVP1 072139Z 01003KT M01/M02 A3026 RMK A01 T10071019  RH  091%=      5-min Rain = 0
KVP1 072140Z 01003KT M01/M02 A3026 RMK A01 T10071019  RH  091%=      5-min Rain = 0
KVP1 072141Z 36003KT M01/M02 A3026 RMK A01 T10071019  RH  091%=      5-min Rain = 0
KVP1 072142Z 01003KT M01/M02 A3026 RMK A01 T10071019  RH  092%=      5-min Rain = 0
KVP1 072143Z 36003KT M01/M02 A3026 RMK A01 T10061018  RH  092%=      5-min Rain = 0
KVP1 072144Z 00003KT M01/M02 A3026 RMK A01 T10061018  RH  092%=      5-min Rain = 0
KVP1 072145Z 01002KT M01/M02 A3026 RMK A01 T10061018  RH  092%=      5-min Rain = 0
KVP1 072146Z 00003KT M01/M02 A3026 RMK A01 T10071018  RH  092%=      5-min Rain = 0
KVP1 072147Z 35004KT M01/M02 A3026 RMK A01 T10071018  RH  092%=      5-min Rain = 0
KVP1 072148Z 35003KT M01/M02 A3026 RMK A01 T10061017  RH  092%=      5-min Rain = 0
KVP1 072149Z 34004KT M01/M02 A3026 RMK A01 T10061017  RH  092%=      5-min Rain = 0
KVP1 072150Z 35004KT M01/M02 A3026 RMK A01 T10051015  RH  093%=      5-min Rain = 0
KVP1 072151Z 36004KT M01/M02 A3027 RMK A01 T10051016  RH  092%=      5-min Rain = 0
KVP1 072152Z 35003KT M01/M02 A3027 RMK A01 T10051017  RH  092%=      5-min Rain = 0
KVP1 072153Z 34005KT M01/M02 A3027 RMK A01 T10061017  RH  092%=      5-min Rain = 0
KVP1 072154Z 34004KT M01/M02 A3027 RMK A01 T10051017  RH  092%=      5-min Rain = 0
KVP1 072155Z 34004KT M01/M02 A3027 RMK A01 T10051017  RH  092%=      5-min Rain = 0
KVP1 072156Z 35003KT M01/M02 A3027 RMK A01 T10051017  RH  092%=      5-min Rain = 0
KVP1 072157Z 34003KT M00/M02 A3027 RMK A01 T10041015  RH  093%=      5-min Rain = 0
KVP1 072158Z 33004KT M00/M01 A3027 RMK A01 T10041014  RH  093%=      5-min Rain = 0
KVP1 072159Z 33004KT M00/M02 A3027 RMK A01 T10041015  RH  092%=      5-min Rain = 0
KVP1 072200Z 33005KT M01/M02 A3027 RMK A01 T10051016  RH  092%=      5-min Rain = 0
KVP1 072201Z 35004KT M01/M02 A3027 RMK A01 T10051017  RH  092%=      5-min Rain = 0
KVP1 072202Z 35004KT M01/M02 A3027 RMK A01 T10051016  RH  092%=      5-min Rain = 0
KVP1 072203Z 35003KT M00/M02 A3027 RMK A01 T10041016  RH  092%=      5-min Rain = 0
KVP1 072204Z 35003KT M00/M02 A3027 RMK A01 T10041016  RH  092%=      5-min Rain = 0
KVP1 072205Z 35003KT M00/M02 A3027 RMK A01 T10041016  RH  092%=      5-min Rain = 0
KVP1 072206Z 36004KT M00/M02 A3027 RMK A01 T10041017  RH  091%=      5-min Rain = 0
KVP1 072207Z 36004KT M00/M02 A3026 RMK A01 T10041016  RH  092%=      5-min Rain = 0
KVP1 072208Z 35004KT M00/M02 A3026 RMK A01 T10041017  RH  091%=      5-min Rain = 0
KVP1 072209Z 00004KT M01/M02 A3026 RMK A01 T10051018  RH  091%=      5-min Rain = 0
KVP1 072210Z 01003KT M01/M02 A3026 RMK A01 T10051018  RH  091%=      5-min Rain = 0
KVP1 072211Z 00003KT M01/M02 A3026 RMK A01 T10051017  RH  091%=      5-min Rain = 0
KVP1 072212Z 02004KT M01/M02 A3026 RMK A01 T10051017  RH  092%=      5-min Rain = 0
KVP1 072213Z 01004KT M01/M02 A3025 RMK A01 T10051017  RH  092%=      5-min Rain = 0
KVP1 072214Z 01003KT M00/M02 A3025 RMK A01 T10041016  RH  092%=      5-min Rain = 0
KVP1 072215Z 02003KT M00/M02 A3025 RMK A01 T10041016  RH  092%=      5-min Rain = 0
KVP1 072216Z 01004KT M00/M02 A3025 RMK A01 T10041016  RH  092%=      5-min Rain = 0
KVP1 072217Z 01003KT M00/M02 A3025 RMK A01 T10041016  RH  092%=      5-min Rain = 0
KVP1 072218Z 01003KT M00/M02 A3025 RMK A01 T10041015  RH  092%=      5-min Rain = 0
KVP1 072219Z 01003KT M00/M01 A3025 RMK A01 T10041014  RH  092%=      5-min Rain = 0
KVP1 072220Z 01004KT M00/M01 A3025 RMK A01 T10031014  RH  093%=      5-min Rain = 0
KVP1 072221Z 02004KT M00/M01 A3025 RMK A01 T10031014  RH  092%=      5-min Rain = 0
KVP1 072222Z 02004KT M00/M01 A3025 RMK A01 T10031014  RH  092%=      5-min Rain = 0
KVP1 072223Z 00003KT M00/M01 A3025 RMK A01 T10031014  RH  093%=      5-min Rain = 0
KVP1 072224Z 01004KT M00/M01 A3025 RMK A01 T10031013  RH  093%=      5-min Rain = 0
KVP1 072225Z 02005KT M00/M01 A3025 RMK A01 T10031013  RH  093%=      5-min Rain = 0
KVP1 072226Z 01004KT M00/M01 A3025 RMK A01 T10031014  RH  093%=      5-min Rain = 0
KVP1 072227Z 01004KT M00/M01 A3025 RMK A01 T10031014  RH  092%=      5-min Rain = 0
KVP1 072228Z 02004KT M00/M01 A3025 RMK A01 T10031014  RH  092%=      5-min Rain = 0
KVP1 072229Z 02005KT M00/M01 A3025 RMK A01 T10031014  RH  092%=      5-min Rain = 0
KVP1 072230Z 01004KT M00/M01 A3025 RMK A01 T10031014  RH  092%=      5-min Rain = 0
KVP1 072231Z 01005KT M00/M01 A3025 RMK A01 T10031014  RH  092%=      5-min Rain = 0
KVP1 072232Z 01005KT M00/M01 A3025 RMK A01 T10031014  RH  092%=      5-min Rain = 0
KVP1 072233Z 02004KT M00/M01 A3025 RMK A01 T10031014  RH  092%=      5-min Rain = 0
KVP1 072234Z 02005KT M00/M01 A3025 RMK A01 T10031014  RH  092%=      5-min Rain = 0
KVP1 072235Z 02005KT M00/M01 A3025 RMK A01 T10031014  RH  092%=      5-min Rain = 0
KVP1 072236Z 02005KT M00/M01 A3025 RMK A01 T10031014  RH  093%=      5-min Rain = 0
KVP1 072237Z 02005KT M00/M01 A3025 RMK A01 T10031014  RH  093%=      5-min Rain = 0
KVP1 072238Z 03004KT M00/M01 A3025 RMK A01 T10031014  RH  093%=      5-min Rain = 0
KVP1 072239Z 02005KT M00/M01 A3025 RMK A01 T10031013  RH  093%=      5-min Rain = 0
KVP1 072240Z 02005KT M00/M01 A3025 RMK A01 T10021013  RH  093%=      5-min Rain = 0
KVP1 072241Z 03005KT M00/M01 A3025 RMK A01 T10031013  RH  093%=      5-min Rain = 0
KVP1 072242Z 03005KT M00/M01 A3025 RMK A01 T10031013  RH  093%=      5-min Rain = 0
KVP1 072243Z 02004KT M00/M01 A3025 RMK A01 T10031013  RH  093%=      5-min Rain = 0
KVP1 072244Z 02004KT M00/M01 A3025 RMK A01 T10031013  RH  093%=      5-min Rain = 0
KVP1 072245Z 02004KT M00/M01 A3025 RMK A01 T10031013  RH  093%=      5-min Rain = 0
KVP1 072246Z 03005KT M00/M01 A3025 RMK A01 T10031013  RH  093%=      5-min Rain = 0
KVP1 072247Z 03005KT M00/M01 A3025 RMK A01 T10031012  RH  093%=      5-min Rain = 0
KVP1 072248Z 03005KT M00/M01 A3025 RMK A01 T10031012  RH  093%=      5-min Rain = 0
KVP1 072249Z 03005KT M00/M01 A3025 RMK A01 T10031012  RH  094%=      5-min Rain = 0
KVP1 072250Z 04004KT M00/M01 A3025 RMK A01 T10031012  RH  094%=      5-min Rain = 0
KVP1 072251Z 04004KT M00/M01 A3025 RMK A01 T10031012  RH  094%=      5-min Rain = 0
KVP1 072252Z 03005KT M00/M01 A3025 RMK A01 T10031012  RH  094%=      5-min Rain = 0
KVP1 072253Z 04005KT M00/M01 A3025 RMK A01 T10031011  RH  094%=      5-min Rain = 0
KVP1 072254Z 03005KT M00/M01 A3025 RMK A01 T10031012  RH  094%=      5-min Rain = 0
KVP1 072255Z 04005KT M00/M01 A3025 RMK A01 T10021011  RH  094%=      5-min Rain = 0
KVP1 072256Z 03005KT M00/M01 A3025 RMK A01 T10031012  RH  094%=      5-min Rain = 0
KVP1 072257Z 04005KT M00/M01 A3025 RMK A01 T10031012  RH  094%=      5-min Rain = 0
KVP1 072258Z 04005KT M00/M01 A3025 RMK A01 T10031012  RH  094%=      5-min Rain = 0
KVP1 072259Z 04005KT M00/M01 A3025 RMK A01 T10031012  RH  094%=      5-min Rain = 0
KVP1 072300Z 04006KT M00/M01 A3025 RMK A01 T10031011  RH  094%=      5-min Rain = 0
KVP1 072301Z 04006KT M00/M01 A3025 RMK A01 T10031011  RH  094%=      5-min Rain = 0
KVP1 072302Z 04006KT M00/M01 A3025 RMK A01 T10031012  RH  094%=      5-min Rain = 0
KVP1 072303Z 04004KT M00/M01 A3025 RMK A01 T10031012  RH  094%=      5-min Rain = 0
KVP1 072304Z 04004KT M00/M01 A3025 RMK A01 T10031012  RH  094%=      5-min Rain = 0
KVP1 072305Z 05005KT M00/M01 A3025 RMK A01 T10031011  RH  094%=      5-min Rain = 0
KVP1 072306Z 04005KT M00/M01 A3025 RMK A01 T10031011  RH  094%=      5-min Rain = 0
KVP1 072307Z 04005KT M00/M01 A3025 RMK A01 T10031012  RH  094%=      5-min Rain = 0
KVP1 072308Z 04004KT M00/M01 A3025 RMK A01 T10031012  RH  094%=      5-min Rain = 0
KVP1 072309Z 04003KT M00/M01 A3025 RMK A01 T10021011  RH  094%=      5-min Rain = 0
KVP1 072310Z 05003KT M00/M01 A3025 RMK A01 T10021010  RH  094%=      5-min Rain = 0
KVP1 072311Z 04002KT M00/M01 A3025 RMK A01 T10021010  RH  094%=      5-min Rain = 0
KVP1 072312Z 04003KT M00/M01 A3025 RMK A01 T10021009  RH  095%=      5-min Rain = 0
KVP1 072313Z 04004KT M00/M01 A3026 RMK A01 T10011009  RH  095%=      5-min Rain = 0
KVP1 072314Z 04003KT M00/M01 A3026 RMK A01 T10011009  RH  095%=      5-min Rain = 0
KVP1 072315Z 04004KT M00/M01 A3026 RMK A01 T10011009  RH  095%=      5-min Rain = 0
KVP1 072316Z 04004KT M00/M01 A3026 RMK A01 T10011009  RH  095%=      5-min Rain = 0
KVP1 072317Z 05003KT M00/M01 A3026 RMK A01 T10011009  RH  095%=      5-min Rain = 0
KVP1 072318Z 05004KT M00/M01 A3026 RMK A01 T10011009  RH  095%=      5-min Rain = 0
KVP1 072319Z 06004KT M00/M01 A3026 RMK A01 T10011009  RH  095%=      5-min Rain = 0
KVP1 072320Z 06003KT M00/M01 A3026 RMK A01 T10011008  RH  095%=      5-min Rain = 0
KVP1 072321Z 05004KT M00/M01 A3026 RMK A01 T10011009  RH  095%=      5-min Rain = 0
KVP1 072322Z 05004KT M00/M01 A3026 RMK A01 T10011009  RH  095%=      5-min Rain = 0
KVP1 072323Z 05004KT M00/M01 A3026 RMK A01 T10011008  RH  095%=      5-min Rain = 0
KVP1 072324Z 05005KT M00/M01 A3026 RMK A01 T10011008  RH  095%=      5-min Rain = 0
KVP1 072325Z 05005KT M00/M01 A3026 RMK A01 T10011009  RH  094%=      5-min Rain = 0
KVP1 072326Z 05004KT M00/M01 A3026 RMK A01 T10011009  RH  094%=      5-min Rain = 0
KVP1 072327Z 06004KT M00/M01 A3026 RMK A01 T10011009  RH  094%=      5-min Rain = 0
KVP1 072328Z 06004KT 00/01 A3026 RMK A01 T00-000-9  RH  094%=      5-min Rain = 0
KVP1 072329Z 06005KT 00/01 A3026 RMK A01 T00-000-9  RH  094%=      5-min Rain = 0
KVP1 072330Z 06005KT M00/M01 A3026 RMK A01 T10011009  RH  094%=      5-min Rain = 0
KVP1 072331Z 06004KT M00/M01 A3026 RMK A01 T10011009  RH  094%=      5-min Rain = 0
KVP1 072332Z 06004KT M00/M01 A3026 RMK A01 T10011009  RH  094%=      5-min Rain = 0
KVP1 072333Z 06005KT M00/M01 A3027 RMK A01 T10011009  RH  094%=      5-min Rain = 0
KVP1 072334Z 06005KT 00/01 A3027 RMK A01 T00-000-9  RH  094%=      5-min Rain = 0
KVP1 072335Z 06004KT 00/01 A3027 RMK A01 T00-000-9  RH  094%=      5-min Rain = 0
KVP1 072336Z 06004KT 00/01 A3027 RMK A01 T00-000-9  RH  094%=      5-min Rain = 0
KVP1 072337Z 06004KT M00/M01 A3027 RMK A01 T10011009  RH  094%=      5-min Rain = 0
KVP1 072338Z 05005KT 00/01 A3027 RMK A01 T00-000-9  RH  094%=      5-min Rain = 0
KVP1 072339Z 06004KT M00/M01 A3027 RMK A01 T10011009  RH  094%=      5-min Rain = 0
KVP1 072340Z 06004KT M00/M01 A3027 RMK A01 T10011009  RH  094%=      5-min Rain = 0
KVP1 072341Z 05003KT 00/01 A3027 RMK A01 T00-000-9  RH  094%=      5-min Rain = 0
KVP1 072342Z 06004KT M00/M01 A3027 RMK A01 T10011009  RH  094%=      5-min Rain = 0
KVP1 072343Z 06004KT 00/01 A3027 RMK A01 T00-000-8  RH  094%=      5-min Rain = 0
KVP1 072344Z 06003KT M00/M01 A3027 RMK A01 T10011009  RH  094%=      5-min Rain = 0
KVP1 072345Z 05003KT 00/01 A3027 RMK A01 T00-000-8  RH  094%=      5-min Rain = 0
KVP1 072346Z 06005KT M00/M01 A3027 RMK A01 T10011008  RH  095%=      5-min Rain = 0
KVP1 072347Z 05003KT M00/M01 A3027 RMK A01 T10011008  RH  094%=      5-min Rain = 0
KVP1 072348Z 05003KT M00/M01 A3027 RMK A01 T10011009  RH  095%=      5-min Rain = 0
KVP1 072349Z 05004KT 00/01 A3027 RMK A01 T00-000-8  RH  095%=      5-min Rain = 0
KVP1 072350Z 06004KT M00/M01 A3027 RMK A01 T10011008  RH  095%=      5-min Rain = 0
KVP1 072351Z 06004KT M00/M01 A3027 RMK A01 T10011008  RH  095%=      5-min Rain = 0
KVP1 072352Z 05004KT 00/01 A3027 RMK A01 T00-000-8  RH  095%=      5-min Rain = 0
KVP1 072353Z 06004KT 00/01 A3027 RMK A01 T00-000-8  RH  095%=      5-min Rain = 0
KVP1 072354Z 05005KT 00/01 A3027 RMK A01 T00-000-8  RH  095%=      5-min Rain = 0
KVP1 072355Z 06005KT M00/M01 A3027 RMK A01 T10011008  RH  095%=      5-min Rain = 0
KVP1 072356Z 06005KT M00/M01 A3027 RMK A01 T10011008  RH  095%=      5-min Rain = 0
KVP1 072357Z 06006KT M00/M01 A3027 RMK A01 T10011008  RH  095%=      5-min Rain = 0
KVP1 072358Z 05005KT M00/M01 A3027 RMK A01 T10011008  RH  095%=      5-min Rain = 0
KVP1 072359Z 05004KT M00/M01 A3027 RMK A01 T10011008  RH  095%=      5-min Rain = 0
KVP1 080000Z 05005KT M00/M01 A3027 RMK A01 T10011008  RH  095%=      5-min Rain = 0
KVP1 080001Z 05005KT 00/01 A3027 RMK A01 T00-000-8  RH  095%=      5-min Rain = 0
KVP1 080002Z 05004KT 00/01 A3027 RMK A01 T00-000-8  RH  095%=      5-min Rain = 0
KVP1 080003Z 05005KT M00/M01 A3027 RMK A01 T10011008  RH  095%=      5-min Rain = 0
KVP1 080004Z 05005KT M00/M01 A3027 RMK A01 T10011008  RH  095%=      5-min Rain = 0
KVP1 080005Z 05004KT 00/01 A3027 RMK A01 T00-000-8  RH  095%=      5-min Rain = 0
KVP1 080006Z 04004KT M00/M01 A3027 RMK A01 T10011008  RH  095%=      5-min Rain = 0
KVP1 080007Z 05005KT 00/01 A3026 RMK A01 T00-000-8  RH  095%=      5-min Rain = 0
KVP1 080008Z 05005KT M00/M01 A3026 RMK A01 T10011008  RH  095%=      5-min Rain = 0
KVP1 080009Z 05005KT 00/01 A3026 RMK A01 T00-000-8  RH  095%=      5-min Rain = 0
KVP1 080010Z 05005KT M00/M01 A3026 RMK A01 T10011008  RH  095%=      5-min Rain = 0
KVP1 080011Z 05004KT 00/01 A3026 RMK A01 T00-000-8  RH  095%=      5-min Rain = 0
KVP1 080012Z 05005KT M00/M01 A3026 RMK A01 T10011008  RH  095%=      5-min Rain = 0
KVP1 080013Z 05006KT M00/M01 A3026 RMK A01 T10011008  RH  095%=      5-min Rain = 0
KVP1 080014Z 05006KT 00/01 A3026 RMK A01 T00-000-8  RH  095%=      5-min Rain = 0
KVP1 080015Z 05005KT M00/M01 A3026 RMK A01 T10011008  RH  095%=      5-min Rain = 0
KVP1 080016Z 06004KT M00/M01 A3026 RMK A01 T10011008  RH  095%=      5-min Rain = 0
KVP1 080017Z 05005KT M00/M01 A3026 RMK A01 T10011008  RH  095%=      5-min Rain = 0
KVP1 080018Z 05005KT M00/M01 A3026 RMK A01 T10011008  RH  095%=      5-min Rain = 0
KVP1 080019Z 05004KT 00/01 A3026 RMK A01 T00-000-8  RH  095%=      5-min Rain = 0
KVP1 080020Z 05006KT M00/M01 A3026 RMK A01 T10011008  RH  095%=      5-min Rain = 0
KVP1 080021Z 05005KT M00/M01 A3026 RMK A01 T10011008  RH  095%=      5-min Rain = 0
KVP1 080022Z 05006KT M00/M01 A3026 RMK A01 T10011009  RH  095%=      5-min Rain = 0
KVP1 080023Z 05006KT M00/M01 A3026 RMK A01 T10011009  RH  095%=      5-min Rain = 0
KVP1 080024Z 05006KT M00/M01 A3026 RMK A01 T10011009  RH  095%=      5-min Rain = 0
KVP1 080025Z 05005KT M00/M01 A3026 RMK A01 T10011009  RH  094%=      5-min Rain = 0
KVP1 080026Z 05005KT M00/M01 A3026 RMK A01 T10011009  RH  094%=      5-min Rain = 0
KVP1 080027Z 05006KT M00/M01 A3026 RMK A01 T10011009  RH  095%=      5-min Rain = 0
KVP1 080028Z 05005KT M00/M01 A3026 RMK A01 T10011009  RH  094%=      5-min Rain = 0
KVP1 080029Z 05006KT M00/M01 A3026 RMK A01 T10011009  RH  094%=      5-min Rain = 0
KVP1 080030Z 05005KT M00/M01 A3026 RMK A01 T10011009  RH  094%=      5-min Rain = 0
KVP1 080031Z 05005KT M00/M01 A3026 RMK A01 T10011009  RH  094%=      5-min Rain = 0
KVP1 080032Z 05006KT M00/M01 A3026 RMK A01 T10011009  RH  095%=      5-min Rain = 0
KVP1 080033Z 05006KT M00/M01 A3026 RMK A01 T10011009  RH  095%=      5-min Rain = 0
KVP1 080034Z 05005KT M00/M01 A3025 RMK A01 T10011009  RH  095%=      5-min Rain = 0
KVP1 080035Z 05006KT M00/M01 A3025 RMK A01 T10011008  RH  095%=      5-min Rain = 0
KVP1 080036Z 05006KT M00/M01 A3025 RMK A01 T10011008  RH  095%=      5-min Rain = 0
KVP1 080037Z 05006KT M00/M01 A3025 RMK A01 T10011008  RH  095%=      5-min Rain = 0
KVP1 080038Z 05005KT M00/M01 A3025 RMK A01 T10011008  RH  095%=      5-min Rain = 0
KVP1 080039Z 06006KT M00/M01 A3025 RMK A01 T10011008  RH  095%=      5-min Rain = 0
KVP1 080040Z 05007KT 00/01 A3025 RMK A01 T00-000-8  RH  095%=      5-min Rain = 0
KVP1 080041Z 06006KT M00/M01 A3025 RMK A01 T10011008  RH  095%=      5-min Rain = 0
KVP1 080042Z 06007KT 00/01 A3025 RMK A01 T00-000-8  RH  095%=      5-min Rain = 0
KVP1 080043Z 06007KT M00/M01 A3025 RMK A01 T10011008  RH  095%=      5-min Rain = 0
KVP1 080044Z 05007KT 00/01 A3025 RMK A01 T00-000-8  RH  095%=      5-min Rain = 0
KVP1 080045Z 06007KT 00/01 A3025 RMK A01 T00-000-8  RH  095%=      5-min Rain = 0
KVP1 080046Z 06007KT M00/M01 A3025 RMK A01 T10011008  RH  095%=      5-min Rain = 0
KVP1 080047Z 06007KT 00/01 A3025 RMK A01 T00-000-7  RH  095%=      5-min Rain = 0
KVP1 080048Z 05006KT 00/01 A3025 RMK A01 T00-000-7  RH  095%=      5-min Rain = 0
KVP1 080049Z 06008KT 00/01 A3025 RMK A01 T00-000-7  RH  095%=      5-min Rain = 0
KVP1 080050Z 06008KT 00/01 A3025 RMK A01 T000000-7  RH  095%=      5-min Rain = 0
KVP1 080051Z 06008KT 00/01 A3025 RMK A01 T00-000-7  RH  095%=      5-min Rain = 0
KVP1 080052Z 06007KT 00/01 A3025 RMK A01 T00-000-7  RH  095%=      5-min Rain = 0
KVP1 080053Z 06006KT 00/01 A3025 RMK A01 T00-000-7  RH  095%=      5-min Rain = 0
KVP1 080054Z 06006KT 00/01 A3025 RMK A01 T000000-7  RH  095%=      5-min Rain = 0
KVP1 080055Z 06007KT 00/01 A3025 RMK A01 T000000-7  RH  095%=      5-min Rain = 0
KVP1 080056Z 06008KT 00/01 A3025 RMK A01 T000000-7  RH  095%=      5-min Rain = 0
KVP1 080057Z 07008KT 00/M01 A3025 RMK A01 T00011007  RH  095%=      5-min Rain = 0
KVP1 080058Z 07007KT 00/01 A3025 RMK A01 T000000-7  RH  095%=      5-min Rain = 0
KVP1 080059Z 06008KT 00/M01 A3026 RMK A01 T00011007  RH  095%=      5-min Rain = 0
KVP1 080100Z 07008KT 00/M01 A3026 RMK A01 T00011007  RH  095%=      5-min Rain = 0
KVP1 080101Z 07007KT 00/M01 A3026 RMK A01 T00011007  RH  095%=      5-min Rain = 0
KVP1 080102Z 07007KT 00/01 A3026 RMK A01 T000000-7  RH  095%=      5-min Rain = 0
KVP1 080103Z 07007KT 00/01 A3026 RMK A01 T000000-6  RH  095%=      5-min Rain = 0
KVP1 080104Z 07007KT 00/01 A3026 RMK A01 T000000-6  RH  095%=      5-min Rain = 0
KVP1 080105Z 07008KT 00/01 A3026 RMK A01 T000000-6  RH  095%=      5-min Rain = 0
KVP1 080106Z 07005KT 00/01 A3026 RMK A01 T000000-6  RH  095%=      5-min Rain = 0
KVP1 080107Z 07007KT 00/01 A3026 RMK A01 T000000-6  RH  095%=      5-min Rain = 0
KVP1 080108Z 07007KT 00/01 A3026 RMK A01 T000000-6  RH  096%=      5-min Rain = 0
KVP1 080109Z 07006KT 00/01 A3026 RMK A01 T00-000-6  RH  096%=      5-min Rain = 0
KVP1 080110Z 08006KT 00/01 A3026 RMK A01 T000000-6  RH  096%=      5-min Rain = 0
KVP1 080111Z 07005KT 00/01 A3026 RMK A01 T00-000-6  RH  096%=      5-min Rain = 0
KVP1 080112Z 07007KT 00/01 A3026 RMK A01 T00-000-6  RH  096%=      5-min Rain = 0
KVP1 080113Z 07008KT 00/01 A3027 RMK A01 T00-000-6  RH  096%=      5-min Rain = 0
KVP1 080114Z 07006KT 00/01 A3027 RMK A01 T00-000-6  RH  096%=      5-min Rain = 0
KVP1 080115Z 08005KT 00/01 A3027 RMK A01 T00-000-6  RH  096%=      5-min Rain = 0
KVP1 080116Z 09006KT 00/01 A3027 RMK A01 T00-000-6  RH  096%=      5-min Rain = 0
KVP1 080117Z 08007KT 00/01 A3027 RMK A01 T00-000-6  RH  096%=      5-min Rain = 0
KVP1 080118Z 08009KT M00/M01 A3027 RMK A01 T10011006  RH  096%=      5-min Rain = 0
KVP1 080119Z 08009KT M00/M01 A3027 RMK A01 T10011006  RH  096%=      5-min Rain = 0
KVP1 080120Z 08007KT M00/M01 A3028 RMK A01 T10011007  RH  096%=      5-min Rain = 0
KVP1 080121Z 08007KT M00/M01 A3028 RMK A01 T10011007  RH  096%=      5-min Rain = 0
KVP1 080122Z 07007KT M00/M01 A3028 RMK A01 T10011007  RH  096%=      5-min Rain = 0
KVP1 080123Z 07008KT M00/M01 A3028 RMK A01 T10011006  RH  096%=      5-min Rain = 0
KVP1 080124Z 07008KT M00/M01 A3028 RMK A01 T10011006  RH  096%=      5-min Rain = 0
KVP1 080125Z 08007KT M00/M01 A3028 RMK A01 T10011007  RH  096%=      5-min Rain = 0
KVP1 080126Z 08008KT M00/M01 A3028 RMK A01 T10011007  RH  096%=      5-min Rain = 0
KVP1 080127Z 07007KT M00/M01 A3028 RMK A01 T10011006  RH  096%=      5-min Rain = 0
KVP1 080128Z 07006KT M00/M01 A3028 RMK A01 T10011007  RH  096%=      5-min Rain = 0
KVP1 080129Z 07007KT M00/M01 A3028 RMK A01 T10011006  RH  096%=      5-min Rain = 0
KVP1 080130Z 07006KT M00/M01 A3028 RMK A01 T10011006  RH  096%=      5-min Rain = 0
KVP1 080131Z 07007KT M00/M01 A3028 RMK A01 T10011006  RH  096%=      5-min Rain = 0
KVP1 080132Z 07007KT M00/M01 A3028 RMK A01 T10011006  RH  096%=      5-min Rain = 0
KVP1 080133Z 08007KT M00/M01 A3028 RMK A01 T10011006  RH  097%=      5-min Rain = 0
KVP1 080134Z 07006KT M00/M01 A3028 RMK A01 T10011006  RH  097%=      5-min Rain = 0
KVP1 080135Z 07006KT M00/M01 A3028 RMK A01 T10011006  RH  097%=      5-min Rain = 0
KVP1 080136Z 07006KT M00/M01 A3028 RMK A01 T10011006  RH  097%=      5-min Rain = 0
KVP1 080137Z 07007KT M00/M01 A3028 RMK A01 T10011006  RH  097%=      5-min Rain = 0
KVP1 080138Z 07006KT M00/M01 A3028 RMK A01 T10011006  RH  097%=      5-min Rain = 0
KVP1 080139Z 07006KT M00/M01 A3028 RMK A01 T10011006  RH  097%=      5-min Rain = 0
KVP1 080140Z 08007KT M00/M01 A3028 RMK A01 T10011006  RH  097%=      5-min Rain = 0
KVP1 080141Z 08007KT M00/M01 A3028 RMK A01 T10011006  RH  097%=      5-min Rain = 0
KVP1 080142Z 08009KT M00/M01 A3028 RMK A01 T10021006  RH  097%=      5-min Rain = 0
KVP1 080143Z 08008KT M00/M01 A3028 RMK A01 T10021007  RH  097%=      5-min Rain = 0
KVP1 080144Z 08007KT M00/M01 A3028 RMK A01 T10021007  RH  097%=      5-min Rain = 0
KVP1 080145Z 08008KT M00/M01 A3028 RMK A01 T10021007  RH  097%=      5-min Rain = 0
KVP1 080146Z 07007KT M00/M01 A3028 RMK A01 T10021007  RH  096%=      5-min Rain = 0
KVP1 080147Z 08006KT M00/M01 A3028 RMK A01 T10021007  RH  096%=      5-min Rain = 0
KVP1 080148Z 08007KT M00/M01 A3028 RMK A01 T10021007  RH  096%=      5-min Rain = 0
KVP1 080149Z 08007KT M00/M01 A3028 RMK A01 T10021007  RH  096%=      5-min Rain = 0
KVP1 080150Z 08006KT M00/M01 A3028 RMK A01 T10021007  RH  096%=      5-min Rain = 0
KVP1 080151Z 08007KT M00/M01 A3028 RMK A01 T10021007  RH  097%=      5-min Rain = 0
KVP1 080152Z 08006KT M00/M01 A3029 RMK A01 T10021007  RH  097%=      5-min Rain = 0
KVP1 080153Z 08005KT M00/M01 A3029 RMK A01 T10021007  RH  097%=      5-min Rain = 0
KVP1 080154Z 07005KT M00/M01 A3029 RMK A01 T10021007  RH  097%=      5-min Rain = 0
KVP1 080155Z 07005KT M00/M01 A3029 RMK A01 T10021007  RH  097%=      5-min Rain = 0
KVP1 080156Z 08006KT M00/M01 A3029 RMK A01 T10021007  RH  097%=      5-min Rain = 0
KVP1 080157Z 07005KT M00/M01 A3029 RMK A01 T10021007  RH  097%=      5-min Rain = 0
KVP1 080158Z 07007KT M00/M01 A3029 RMK A01 T10021007  RH  097%=      5-min Rain = 0
KVP1 080159Z 07008KT M00/M01 A3029 RMK A01 T10021007  RH  097%=      5-min Rain = 0
KVP1 080200Z 08008KT M00/M01 A3029 RMK A01 T10031008  RH  096%=      5-min Rain = 0
KVP1 080201Z 07007KT M00/M01 A3029 RMK A01 T10031008  RH  096%=      5-min Rain = 0
KVP1 080202Z 08006KT M00/M01 A3029 RMK A01 T10031009  RH  096%=      5-min Rain = 0
KVP1 080203Z 08006KT M00/M01 A3029 RMK A01 T10031009  RH  096%=      5-min Rain = 0
KVP1 080204Z 08006KT M00/M01 A3029 RMK A01 T10031008  RH  096%=      5-min Rain = 0
KVP1 080205Z 08005KT M00/M01 A3029 RMK A01 T10031008  RH  096%=      5-min Rain = 0
KVP1 080206Z 08005KT M00/M01 A3029 RMK A01 T10031008  RH  096%=      5-min Rain = 0
KVP1 080207Z 08007KT M00/M01 A3029 RMK A01 T10031008  RH  096%=      5-min Rain = 0
KVP1 080208Z 08007KT M00/M01 A3029 RMK A01 T10031008  RH  096%=      5-min Rain = 0
KVP1 080209Z 08006KT M00/M01 A3029 RMK A01 T10031008  RH  096%=      5-min Rain = 0
KVP1 080210Z 08005KT M00/M01 A3029 RMK A01 T10031008  RH  096%=      5-min Rain = 0
KVP1 080211Z 09006KT M00/M01 A3029 RMK A01 T10031008  RH  096%=      5-min Rain = 0
KVP1 080212Z 09006KT M00/M01 A3029 RMK A01 T10031008  RH  096%=      5-min Rain = 0
KVP1 080213Z 09007KT M00/M01 A3029 RMK A01 T10031008  RH  096%=      5-min Rain = 0
KVP1 080214Z 08006KT M00/M01 A3029 RMK A01 T10031009  RH  096%=      5-min Rain = 0
KVP1 080215Z 08007KT M00/M01 A3029 RMK A01 T10031009  RH  096%=      5-min Rain = 0
KVP1 080216Z 08007KT M00/M01 A3029 RMK A01 T10031010  RH  095%=      5-min Rain = 0
KVP1 080217Z 07006KT M00/M01 A3029 RMK A01 T10031010  RH  095%=      5-min Rain = 0
KVP1 080218Z 07007KT M00/M01 A3029 RMK A01 T10031010  RH  095%=      5-min Rain = 0
KVP1 080219Z 07006KT M00/M01 A3029 RMK A01 T10031011  RH  095%=      5-min Rain = 0
KVP1 080220Z 07007KT M00/M01 A3029 RMK A01 T10031011  RH  095%=      5-min Rain = 0
KVP1 080221Z 07006KT M00/M01 A3029 RMK A01 T10041012  RH  094%=      5-min Rain = 0
KVP1 080222Z 07005KT M00/M01 A3029 RMK A01 T10041012  RH  094%=      5-min Rain = 0
KVP1 080223Z 07005KT M00/M01 A3029 RMK A01 T10041012  RH  094%=      5-min Rain = 0
KVP1 080224Z 07005KT M00/M01 A3029 RMK A01 T10041012  RH  094%=      5-min Rain = 0
KVP1 080225Z 07006KT M00/M01 A3029 RMK A01 T10041012  RH  094%=      5-min Rain = 0
KVP1 080226Z 07006KT M00/M01 A3029 RMK A01 T10041012  RH  094%=      5-min Rain = 0
KVP1 080227Z 07006KT M00/M01 A3029 RMK A01 T10041012  RH  094%=      5-min Rain = 0
KVP1 080228Z 07005KT M00/M01 A3029 RMK A01 T10041012  RH  094%=      5-min Rain = 0
KVP1 080229Z 07006KT M00/M01 A3029 RMK A01 T10041012  RH  094%=      5-min Rain = 0
KVP1 080230Z 07007KT M00/M01 A3029 RMK A01 T10041012  RH  094%=      5-min Rain = 0
KVP1 080231Z 07006KT M00/M01 A3029 RMK A01 T10041012  RH  094%=      5-min Rain = 0
KVP1 080232Z 07006KT M00/M01 A3029 RMK A01 T10041012  RH  094%=      5-min Rain = 0
KVP1 080233Z 07006KT M00/M01 A303 RMK A01 T10041012  RH  094%=      5-min Rain = 0
KVP1 080234Z 07005KT M00/M01 A303 RMK A01 T10041012  RH  094%=      5-min Rain = 0
KVP1 080235Z 07005KT M00/M01 A303 RMK A01 T10041012  RH  094%=      5-min Rain = 0
KVP1 080236Z 07005KT M00/M01 A303 RMK A01 T10041012  RH  094%=      5-min Rain = 0
KVP1 080237Z 07006KT M00/M01 A303 RMK A01 T10041012  RH  094%=      5-min Rain = 0
KVP1 080238Z 07006KT M00/M01 A303 RMK A01 T10041012  RH  094%=      5-min Rain = 0
KVP1 080239Z 07005KT M00/M01 A303 RMK A01 T10031011  RH  094%=      5-min Rain = 0
KVP1 080240Z 07006KT M00/M01 A303 RMK A01 T10041012  RH  094%=      5-min Rain = 0
KVP1 080241Z 07005KT M00/M01 A303 RMK A01 T10041012  RH  094%=      5-min Rain = 0
KVP1 080242Z 07007KT M00/M01 A303 RMK A01 T10041012  RH  094%=      5-min Rain = 0
KVP1 080243Z 08006KT M00/M01 A303 RMK A01 T10041012  RH  094%=      5-min Rain = 0
KVP1 080244Z 07006KT M00/M01 A303 RMK A01 T10041012  RH  094%=      5-min Rain = 0
KVP1 080245Z 07007KT M00/M01 A303 RMK A01 T10041013  RH  094%=      5-min Rain = 0
KVP1 080246Z 07006KT M00/M01 A303 RMK A01 T10041013  RH  094%=      5-min Rain = 0
KVP1 080247Z 07006KT M00/M01 A303 RMK A01 T10041013  RH  094%=      5-min Rain = 0
KVP1 080248Z 07006KT M00/M01 A303 RMK A01 T10041013  RH  094%=      5-min Rain = 0
KVP1 080249Z 06008KT M00/M01 A303 RMK A01 T10041013  RH  094%=      5-min Rain = 0
KVP1 080250Z 07008KT M00/M01 A303 RMK A01 T10041013  RH  094%=      5-min Rain = 0
KVP1 080251Z 07007KT M00/M01 A303 RMK A01 T10041013  RH  094%=      5-min Rain = 0
KVP1 080252Z 07007KT M00/M01 A303 RMK A01 T10041013  RH  094%=      5-min Rain = 0
KVP1 080253Z 07006KT M00/M01 A303 RMK A01 T10041013  RH  094%=      5-min Rain = 0
KVP1 080254Z 07007KT M00/M01 A303 RMK A01 T10041012  RH  094%=      5-min Rain = 0
KVP1 080255Z 07007KT M00/M01 A303 RMK A01 T10041012  RH  094%=      5-min Rain = 0
KVP1 080256Z 07007KT M00/M01 A303 RMK A01 T10041012  RH  094%=      5-min Rain = 0
KVP1 080257Z 07008KT M00/M01 A303 RMK A01 T10041012  RH  094%=      5-min Rain = 0
KVP1 080258Z 07006KT M00/M01 A303 RMK A01 T10041013  RH  094%=      5-min Rain = 0
KVP1 080259Z 07006KT M00/M01 A303 RMK A01 T10041013  RH  094%=      5-min Rain = 0
KVP1 080300Z 07007KT M00/M01 A303 RMK A01 T10041012  RH  094%=      5-min Rain = 0
KVP1 080301Z 07007KT M00/M01 A3031 RMK A01 T10041012  RH  094%=      5-min Rain = 0
KVP1 080302Z 08006KT M00/M01 A3031 RMK A01 T10041012  RH  094%=      5-min Rain = 0
KVP1 080303Z 08008KT M00/M01 A3031 RMK A01 T10041012  RH  095%=      5-min Rain = 0
KVP1 080304Z 07006KT M00/M01 A3031 RMK A01 T10041012  RH  095%=      5-min Rain = 0
KVP1 080305Z 08007KT M00/M01 A3031 RMK A01 T10041012  RH  095%=      5-min Rain = 0
KVP1 080306Z 07008KT M01/M01 A3031 RMK A01 T10051012  RH  095%=      5-min Rain = 0
KVP1 080307Z 08007KT M01/M01 A3031 RMK A01 T10051013  RH  094%=      5-min Rain = 0
KVP1 080308Z 07007KT M01/M01 A3031 RMK A01 T10051013  RH  094%=      5-min Rain = 0
KVP1 080309Z 07007KT M01/M01 A3031 RMK A01 T10051013  RH  094%=      5-min Rain = 0
KVP1 080310Z 08007KT M01/M01 A3031 RMK A01 T10051013  RH  094%=      5-min Rain = 0
KVP1 080311Z 08008KT M01/M01 A3031 RMK A01 T10051013  RH  094%=      5-min Rain = 0
KVP1 080312Z 07007KT M01/M01 A3031 RMK A01 T10051013  RH  094%=      5-min Rain = 0
KVP1 080313Z 08007KT M01/M01 A3031 RMK A01 T10061013  RH  094%=      5-min Rain = 0
KVP1 080314Z 07007KT M01/M01 A3031 RMK A01 T10061014  RH  094%=      5-min Rain = 0
KVP1 080315Z 08008KT M01/M01 A3031 RMK A01 T10061013  RH  094%=      5-min Rain = 0
KVP1 080316Z 07006KT M01/M01 A3031 RMK A01 T10061013  RH  095%=      5-min Rain = 0
KVP1 080317Z 08008KT M01/M01 A3031 RMK A01 T10061013  RH  095%=      5-min Rain = 0
KVP1 080318Z 07007KT M01/M01 A3031 RMK A01 T10061013  RH  095%=      5-min Rain = 0
KVP1 080319Z 07007KT M01/M01 A3031 RMK A01 T10061013  RH  095%=      5-min Rain = 0
KVP1 080320Z 07008KT M01/M01 A3031 RMK A01 T10061013  RH  095%=      5-min Rain = 0
KVP1 080321Z 07007KT M01/M01 A3031 RMK A01 T10051013  RH  095%=      5-min Rain = 0
KVP1 080322Z 07006KT M01/M01 A3031 RMK A01 T10051013  RH  095%=      5-min Rain = 0
KVP1 080323Z 08007KT M01/M01 A3031 RMK A01 T10061013  RH  095%=      5-min Rain = 0
KVP1 080324Z 07007KT M01/M01 A3031 RMK A01 T10061013  RH  095%=      5-min Rain = 0
KVP1 080325Z 07006KT M01/M01 A3031 RMK A01 T10061013  RH  095%=      5-min Rain = 0
KVP1 080326Z 07008KT M01/M01 A3031 RMK A01 T10061013  RH  095%=      5-min Rain = 0
KVP1 080327Z 07006KT M01/M01 A3031 RMK A01 T10061013  RH  095%=      5-min Rain = 0
KVP1 080328Z 07006KT M01/M01 A3031 RMK A01 T10061013  RH  095%=      5-min Rain = 0
KVP1 080329Z 07007KT M01/M01 A3031 RMK A01 T10061013  RH  095%=      5-min Rain = 0
KVP1 080330Z 07006KT M01/M01 A3031 RMK A01 T10061013  RH  095%=      5-min Rain = 0
KVP1 080331Z 07007KT M01/M01 A3031 RMK A01 T10061013  RH  095%=      5-min Rain = 0
KVP1 080332Z 07007KT M01/M01 A3031 RMK A01 T10061013  RH  095%=      5-min Rain = 0
KVP1 080333Z 07006KT M01/M01 A303 RMK A01 T10061013  RH  095%=      5-min Rain = 0
KVP1 080334Z 06007KT M01/M01 A303 RMK A01 T10061013  RH  095%=      5-min Rain = 0
KVP1 080335Z 06008KT M01/M01 A303 RMK A01 T10061012  RH  095%=      5-min Rain = 0
KVP1 080336Z 07008KT M01/M01 A303 RMK A01 T10061013  RH  095%=      5-min Rain = 0
KVP1 080337Z 07008KT M01/M01 A303 RMK A01 T10061013  RH  095%=      5-min Rain = 0
KVP1 080338Z 07007KT M01/M01 A303 RMK A01 T10061013  RH  095%=      5-min Rain = 0
KVP1 080339Z 06006KT M01/M01 A303 RMK A01 T10061012  RH  095%=      5-min Rain = 0
KVP1 080340Z 06008KT M01/M01 A303 RMK A01 T10061012  RH  096%=      5-min Rain = 0
KVP1 080341Z 07008KT M01/M01 A303 RMK A01 T10061012  RH  096%=      5-min Rain = 0
KVP1 080342Z 07007KT M01/M01 A303 RMK A01 T10061012  RH  096%=      5-min Rain = 0
KVP1 080343Z 07008KT M01/M01 A303 RMK A01 T10061012  RH  096%=      5-min Rain = 0
KVP1 080344Z 06005KT M01/M01 A303 RMK A01 T10061012  RH  096%=      5-min Rain = 0
KVP1 080345Z 06006KT M01/M01 A303 RMK A01 T10061012  RH  096%=      5-min Rain = 0
KVP1 080346Z 06006KT M01/M01 A303 RMK A01 T10061012  RH  096%=      5-min Rain = 0
KVP1 080347Z 07007KT M01/M01 A303 RMK A01 T10061012  RH  096%=      5-min Rain = 0
KVP1 080348Z 07007KT M01/M01 A303 RMK A01 T10061012  RH  096%=      5-min Rain = 0
KVP1 080349Z 06007KT M01/M01 A303 RMK A01 T10061012  RH  096%=      5-min Rain = 0
KVP1 080350Z 06008KT M01/M01 A303 RMK A01 T10061012  RH  096%=      5-min Rain = 0
KVP1 080351Z 06007KT M01/M01 A303 RMK A01 T10061012  RH  095%=      5-min Rain = 0
KVP1 080352Z 06006KT M01/M01 A303 RMK A01 T10061013  RH  095%=      5-min Rain = 0
KVP1 080353Z 07006KT M01/M01 A303 RMK A01 T10061013  RH  095%=      5-min Rain = 0
KVP1 080354Z 06008KT M01/M01 A303 RMK A01 T10061013  RH  095%=      5-min Rain = 0
KVP1 080355Z 06008KT M01/M01 A303 RMK A01 T10061012  RH  095%=      5-min Rain = 0
KVP1 080356Z 07008KT M01/M01 A303 RMK A01 T10061012  RH  095%=      5-min Rain = 0
KVP1 080357Z 06009KT M01/M01 A303 RMK A01 T10061013  RH  095%=      5-min Rain = 0
KVP1 080358Z 06009KT M01/M01 A3029 RMK A01 T10061013  RH  095%=      5-min Rain = 0
KVP1 080359Z 06008KT M01/M01 A3029 RMK A01 T10061013  RH  095%=      5-min Rain = 0
KVP1 080400Z 06006KT M01/M01 A3029 RMK A01 T10061013  RH  095%=      5-min Rain = 0
KVP1 080401Z 05007KT M01/M01 A3029 RMK A01 T10061013  RH  095%=      5-min Rain = 0
KVP1 080402Z 06007KT M01/M01 A3029 RMK A01 T10061013  RH  095%=      5-min Rain = 0
KVP1 080403Z 06007KT M01/M01 A3029 RMK A01 T10061013  RH  096%=      5-min Rain = 0
KVP1 080404Z 06006KT M01/M01 A3029 RMK A01 T10061013  RH  096%=      5-min Rain = 0
KVP1 080405Z 07006KT M01/M01 A3029 RMK A01 T10071013  RH  096%=      5-min Rain = 0
KVP1 080406Z 06006KT M01/M01 A303 RMK A01 T10061012  RH  096%=      5-min Rain = 0
KVP1 080407Z 06008KT M01/M01 A303 RMK A01 T10061012  RH  096%=      5-min Rain = 0
KVP1 080408Z 06007KT M01/M01 A303 RMK A01 T10061012  RH  096%=      5-min Rain = 0
KVP1 080409Z 06006KT M01/M01 A303 RMK A01 T10061012  RH  096%=      5-min Rain = 0
KVP1 080410Z 06007KT M01/M01 A303 RMK A01 T10061012  RH  096%=      5-min Rain = 0
KVP1 080411Z 06007KT M01/M01 A303 RMK A01 T10061012  RH  096%=      5-min Rain = 0
KVP1 080412Z 07007KT M01/M01 A303 RMK A01 T10071012  RH  096%=      5-min Rain = 0
KVP1 080413Z 06006KT M01/M01 A303 RMK A01 T10061012  RH  096%=      5-min Rain = 0
KVP1 080414Z 06006KT M01/M01 A303 RMK A01 T10061012  RH  096%=      5-min Rain = 0
KVP1 080415Z 05006KT M01/M01 A303 RMK A01 T10071012  RH  096%=      5-min Rain = 0
KVP1 080416Z 05007KT M01/M01 A303 RMK A01 T10061012  RH  096%=      5-min Rain = 0
KVP1 080417Z 05007KT M01/M01 A303 RMK A01 T10071012  RH  096%=      5-min Rain = 0
KVP1 080418Z 05007KT M01/M01 A3029 RMK A01 T10061012  RH  096%=      5-min Rain = 0
KVP1 080419Z 05008KT M01/M01 A3029 RMK A01 T10061012  RH  096%=      5-min Rain = 0
KVP1 080420Z 05008KT M01/M01 A3029 RMK A01 T10071013  RH  096%=      5-min Rain = 0
KVP1 080421Z 05008KT M01/M01 A3029 RMK A01 T10071013  RH  096%=      5-min Rain = 0
KVP1 080422Z 05008KT M01/M01 A3029 RMK A01 T10071013  RH  096%=      5-min Rain = 0
KVP1 080423Z 05008KT M01/M01 A3029 RMK A01 T10071014  RH  095%=      5-min Rain = 0
KVP1 080424Z 05007KT M01/M01 A3029 RMK A01 T10071014  RH  095%=      5-min Rain = 0
KVP1 080425Z 05007KT M01/M01 A3029 RMK A01 T10071014  RH  095%=      5-min Rain = 0
KVP1 080426Z 05008KT M01/M01 A3029 RMK A01 T10071014  RH  095%=      5-min Rain = 0
KVP1 080427Z 05009KT M01/M01 A3029 RMK A01 T10071014  RH  095%=      5-min Rain = 0
KVP1 080428Z 05008KT M01/M02 A3029 RMK A01 T10071015  RH  095%=      5-min Rain = 0
KVP1 080429Z 05010KT M01/M02 A3029 RMK A01 T10071015  RH  094%=      5-min Rain = 0
KVP1 080430Z 05009KT M01/M02 A3029 RMK A01 T10071016  RH  094%=      5-min Rain = 0
KVP1 080431Z 05010KT M01/M02 A3029 RMK A01 T10071016  RH  093%=      5-min Rain = 0
KVP1 080432Z 05009KT M01/M02 A3029 RMK A01 T10071017  RH  093%=      5-min Rain = 0
KVP1 080433Z 05008KT M01/M02 A3029 RMK A01 T10071017  RH  093%=      5-min Rain = 0
KVP1 080434Z 05008KT M01/M02 A3029 RMK A01 T10071017  RH  093%=      5-min Rain = 0
KVP1 080435Z 05009KT M01/M02 A3029 RMK A01 T10071017  RH  093%=      5-min Rain = 0
KVP1 080436Z 05008KT M01/M02 A3029 RMK A01 T10071017  RH  093%=      5-min Rain = 0
KVP1 080437Z 05007KT M01/M02 A3029 RMK A01 T10071017  RH  093%=      5-min Rain = 0
KVP1 080438Z 05008KT M01/M02 A3029 RMK A01 T10071017  RH  093%=      5-min Rain = 0
KVP1 080439Z 05007KT M01/M02 A3029 RMK A01 T10071017  RH  093%=      5-min Rain = 0
KVP1 080440Z 05008KT M01/M02 A3029 RMK A01 T10071017  RH  093%=      5-min Rain = 0
KVP1 080441Z 04008KT M01/M02 A3029 RMK A01 T10071017  RH  093%=      5-min Rain = 0
KVP1 080442Z 05008KT M01/M02 A3029 RMK A01 T10071018  RH  093%=      5-min Rain = 0
KVP1 080443Z 04008KT M01/M02 A3029 RMK A01 T10071018  RH  093%=      5-min Rain = 0
KVP1 080444Z 05009KT M01/M02 A3029 RMK A01 T10071018  RH  093%=      5-min Rain = 0
KVP1 080445Z 04008KT M01/M02 A3029 RMK A01 T10071018  RH  092%=      5-min Rain = 0
KVP1 080446Z 04009KT M01/M02 A3029 RMK A01 T10071019  RH  092%=      5-min Rain = 0
KVP1 080447Z 05009KT M01/M02 A3029 RMK A01 T10081019  RH  092%=      5-min Rain = 0
KVP1 080448Z 05008KT M01/M02 A3029 RMK A01 T10081019  RH  092%=      5-min Rain = 0
KVP1 080449Z 05008KT M01/M02 A3029 RMK A01 T10081019  RH  092%=      5-min Rain = 0
KVP1 080450Z 05009KT M01/M02 A3029 RMK A01 T10081019  RH  092%=      5-min Rain = 0
KVP1 080451Z 04009KT M01/M02 A3029 RMK A01 T10081019  RH  092%=      5-min Rain = 0
KVP1 080452Z 05007KT M01/M02 A3029 RMK A01 T10081019  RH  092%=      5-min Rain = 0
KVP1 080453Z 04008KT M01/M02 A3029 RMK A01 T10081019  RH  092%=      5-min Rain = 0
KVP1 080454Z 05009KT M01/M02 A3029 RMK A01 T10081019  RH  092%=      5-min Rain = 0
KVP1 080455Z 05008KT M01/M02 A3029 RMK A01 T10081019  RH  092%=      5-min Rain = 0
KVP1 080456Z 04008KT M01/M02 A3029 RMK A01 T10081019  RH  092%=      5-min Rain = 0
KVP1 080457Z 05007KT M01/M02 A3029 RMK A01 T10081019  RH  092%=      5-min Rain = 0
KVP1 080458Z 04006KT M01/M02 A303 RMK A01 T10081019  RH  092%=      5-min Rain = 0
KVP1 080459Z 05008KT M01/M02 A303 RMK A01 T10081019  RH  092%=      5-min Rain = 0
KVP1 080500Z 05006KT M01/M02 A303 RMK A01 T10081019  RH  093%=      5-min Rain = 0
KVP1 080501Z 05006KT M01/M02 A303 RMK A01 T10081018  RH  093%=      5-min Rain = 0
KVP1 080502Z 05007KT M01/M02 A3029 RMK A01 T10081018  RH  093%=      5-min Rain = 0
KVP1 080503Z 05008KT M01/M02 A3029 RMK A01 T10081018  RH  093%=      5-min Rain = 0
KVP1 080504Z 05009KT M01/M02 A3029 RMK A01 T10081019  RH  093%=      5-min Rain = 0
KVP1 080505Z 05007KT M01/M02 A3029 RMK A01 T10081019  RH  092%=      5-min Rain = 0
KVP1 080506Z 05007KT M01/M02 A3029 RMK A01 T10081019  RH  092%=      5-min Rain = 0
KVP1 080507Z 05008KT M01/M02 A3029 RMK A01 T10081019  RH  092%=      5-min Rain = 0
KVP1 080508Z 05008KT M01/M02 A3029 RMK A01 T10081019  RH  093%=      5-min Rain = 0
KVP1 080509Z 04008KT M01/M02 A3029 RMK A01 T10081019  RH  093%=      5-min Rain = 0
KVP1 080510Z 05006KT M01/M02 A3029 RMK A01 T10081018  RH  093%=      5-min Rain = 0
KVP1 080511Z 05007KT M01/M02 A3029 RMK A01 T10091018  RH  093%=      5-min Rain = 0
KVP1 080512Z 06008KT M01/M02 A3029 RMK A01 T10081018  RH  093%=      5-min Rain = 0
KVP1 080513Z 05006KT M01/M02 A303 RMK A01 T10081019  RH  093%=      5-min Rain = 0
KVP1 080514Z 05006KT M01/M02 A303 RMK A01 T10081018  RH  093%=      5-min Rain = 0
KVP1 080515Z 05006KT M01/M02 A303 RMK A01 T10081018  RH  093%=      5-min Rain = 0
KVP1 080516Z 05007KT M01/M02 A303 RMK A01 T10081019  RH  093%=      5-min Rain = 0
KVP1 080517Z 05007KT M01/M02 A303 RMK A01 T10091019  RH  093%=      5-min Rain = 0
KVP1 080518Z 05007KT M01/M02 A303 RMK A01 T10091019  RH  093%=      5-min Rain = 0
KVP1 080519Z 05008KT M01/M02 A303 RMK A01 T10091020  RH  092%=      5-min Rain = 0
KVP1 080520Z 05009KT M01/M02 A303 RMK A01 T10091020  RH  092%=      5-min Rain = 0
KVP1 080521Z 05008KT M01/M02 A303 RMK A01 T10091020  RH  092%=      5-min Rain = 0
KVP1 080522Z 05008KT M01/M02 A303 RMK A01 T10081020  RH  092%=      5-min Rain = 0
KVP1 080523Z 05008KT M01/M02 A303 RMK A01 T10091020  RH  092%=      5-min Rain = 0
KVP1 080524Z 05009KT M01/M02 A303 RMK A01 T10091020  RH  092%=      5-min Rain = 0
KVP1 080525Z 05009KT M01/M02 A303 RMK A01 T10091021  RH  092%=      5-min Rain = 0
KVP1 080526Z 05008KT M01/M02 A303 RMK A01 T10091022  RH  091%=      5-min Rain = 0
KVP1 080527Z 06007KT M01/M02 A303 RMK A01 T10091022  RH  091%=      5-min Rain = 0
KVP1 080528Z 05007KT M01/M02 A3031 RMK A01 T10091022  RH  091%=      5-min Rain = 0
KVP1 080529Z 06007KT M01/M02 A3031 RMK A01 T10091021  RH  091%=      5-min Rain = 0
KVP1 080530Z 06007KT M01/M02 A3031 RMK A01 T10091021  RH  091%=      5-min Rain = 0
KVP1 080531Z 06006KT M01/M02 A3031 RMK A01 T10091021  RH  091%=      5-min Rain = 0
KVP1 080532Z 07004KT M01/M02 A3031 RMK A01 T10091021  RH  091%=      5-min Rain = 0
KVP1 080533Z 07005KT M01/M02 A3031 RMK A01 T10091020  RH  092%=      5-min Rain = 0
KVP1 080534Z 07005KT M01/M02 A3031 RMK A01 T10091019  RH  092%=      5-min Rain = 0
KVP1 080535Z 07005KT M01/M02 A3031 RMK A01 T10091019  RH  092%=      5-min Rain = 0
KVP1 080536Z 06003KT M01/M02 A3031 RMK A01 T10091019  RH  092%=      5-min Rain = 0
KVP1 080537Z 06004KT M01/M02 A3031 RMK A01 T10081019  RH  093%=      5-min Rain = 0
KVP1 080538Z 07004KT M01/M02 A3032 RMK A01 T10091019  RH  093%=      5-min Rain = 0
KVP1 080539Z 06004KT M01/M02 A3032 RMK A01 T10091019  RH  093%=      5-min Rain = 0
KVP1 080540Z 06004KT M01/M02 A3032 RMK A01 T10091020  RH  092%=      5-min Rain = 0
KVP1 080541Z 05004KT M01/M02 A3032 RMK A01 T10091020  RH  092%=      5-min Rain = 0
KVP1 080542Z 06004KT M01/M02 A3031 RMK A01 T10091020  RH  092%=      5-min Rain = 0
KVP1 080543Z 06004KT M01/M02 A3031 RMK A01 T10091020  RH  092%=      5-min Rain = 0
KVP1 080544Z 05004KT M01/M02 A3031 RMK A01 T10091020  RH  092%=      5-min Rain = 0
KVP1 080545Z 05003KT M01/M02 A3031 RMK A01 T10091020  RH  092%=      5-min Rain = 0
KVP1 080546Z 06003KT M01/M02 A3032 RMK A01 T10091020  RH  092%=      5-min Rain = 0
KVP1 080547Z 06004KT M01/M02 A3032 RMK A01 T10091020  RH  092%=      5-min Rain = 0
KVP1 080548Z 06004KT M01/M02 A3032 RMK A01 T10091020  RH  092%=      5-min Rain = 0
KVP1 080549Z 06004KT M01/M02 A3032 RMK A01 T10091020  RH  092%=      5-min Rain = 0
KVP1 080550Z 07004KT M01/M02 A3032 RMK A01 T10091021  RH  092%=      5-min Rain = 0
KVP1 080551Z 06004KT M01/M02 A3032 RMK A01 T10091020  RH  092%=      5-min Rain = 0
KVP1 080552Z 07004KT M01/M02 A3032 RMK A01 T10091021  RH  092%=      5-min Rain = 0
KVP1 080553Z 07003KT M01/M02 A3032 RMK A01 T10091021  RH  092%=      5-min Rain = 0
KVP1 080554Z 07004KT M01/M02 A3031 RMK A01 T10091020  RH  092%=      5-min Rain = 0
KVP1 080555Z 07005KT M01/M02 A3032 RMK A01 T10091020  RH  092%=      5-min Rain = 0
KVP1 080556Z 07004KT M01/M02 A3032 RMK A01 T10091021  RH  092%=      5-min Rain = 0
KVP1 080557Z 07005KT M01/M02 A3032 RMK A01 T10101022  RH  092%=      5-min Rain = 0
KVP1 080558Z 07005KT M01/M02 A3032 RMK A01 T10101022  RH  092%=      5-min Rain = 0
KVP1 080559Z 07006KT M01/M02 A3031 RMK A01 T10101022  RH  092%=      5-min Rain = 0

Page generated in 0.0835 seconds.